ACA3 CYVR-RJAA

Flight info

Callsign ACA3
Flight time 9h 43m
Altitude 34000
Route TREEL DCT UQQ DCT YZT DCT KATCH/N0469F360 B757 NULUK R220 NANDY/N0470F380 R220 NOGAL R220 NANAC/N0465F400 Y810 OLDIV Y809 SUPOK
Aircraft A339/H-SDE3FGHIJ7M3P2RWXY/LB1

Departure

Time 2026-05-05 11:17
Airport Vancouver International Airport (CYVR)

Arrival

Time 2026-05-05 21:00
Airport Narita International Airport (RJAA)
Time Latitude Longitude Altitude Speed Heading
2026-05-05 10:34 49.19576 -123.18033 19 ft 0 kts 154°
2026-05-05 11:01 49.19587 -123.18040 19 ft 2 kts 154°
2026-05-05 11:01 49.19600 -123.18050 19 ft 2 kts 154°
2026-05-05 11:01 49.19614 -123.18060 19 ft 2 kts 154°
2026-05-05 11:01 49.19627 -123.18070 19 ft 2 kts 162°
2026-05-05 11:02 49.19642 -123.18075 19 ft 2 kts 170°
2026-05-05 11:02 49.19657 -123.18078 19 ft 2 kts 177°
2026-05-05 11:02 49.19665 -123.18078 19 ft 0 kts 181°
2026-05-05 11:02 49.19650 -123.18079 19 ft 3 kts 191°
2026-05-05 11:03 49.19631 -123.18106 19 ft 3 kts 242°
2026-05-05 11:03 49.19630 -123.18145 19 ft 3 kts 285°
2026-05-05 11:03 49.19648 -123.18181 19 ft 5 kts 319°
2026-05-05 11:03 49.19673 -123.18224 19 ft 5 kts 298°
2026-05-05 11:04 49.19680 -123.18269 19 ft 2 kts 280°
2026-05-05 11:04 49.19681 -123.18276 19 ft 0 kts 281°
2026-05-05 11:08 49.19682 -123.18285 19 ft 1 kts 280°
2026-05-05 11:08 49.19686 -123.18316 19 ft 3 kts 280°
2026-05-05 11:09 49.19692 -123.18365 19 ft 5 kts 280°
2026-05-05 11:09 49.19700 -123.18432 19 ft 6 kts 280°
2026-05-05 11:09 49.19708 -123.18508 19 ft 7 kts 280°
2026-05-05 11:09 49.19727 -123.18569 19 ft 6 kts 323°
2026-05-05 11:10 49.19778 -123.18580 19 ft 8 kts
2026-05-05 11:10 49.19839 -123.18566 19 ft 9 kts 10°
2026-05-05 11:10 49.19907 -123.18548 19 ft 10 kts 10°
2026-05-05 11:10 49.19981 -123.18528 19 ft 11 kts 10°
2026-05-05 11:11 49.20058 -123.18507 19 ft 10 kts 10°
2026-05-05 11:11 49.20107 -123.18508 19 ft 6 kts 333°
2026-05-05 11:11 49.20131 -123.18574 19 ft 8 kts 282°
2026-05-05 11:11 49.20142 -123.18668 19 ft 9 kts 279°
2026-05-05 11:12 49.20154 -123.18772 19 ft 10 kts 280°
2026-05-05 11:12 49.20167 -123.18888 19 ft 11 kts 280°
2026-05-05 11:12 49.20182 -123.19012 19 ft 12 kts 280°
2026-05-05 11:12 49.20197 -123.19144 19 ft 12 kts 280°
2026-05-05 11:13 49.20212 -123.19282 19 ft 13 kts 279°
2026-05-05 11:13 49.20228 -123.19427 19 ft 14 kts 280°
2026-05-05 11:13 49.20245 -123.19576 19 ft 14 kts 280°
2026-05-05 11:13 49.20263 -123.19728 19 ft 14 kts 280°
2026-05-05 11:14 49.20281 -123.19882 19 ft 13 kts 279°
2026-05-05 11:14 49.20293 -123.19989 19 ft 8 kts 280°
2026-05-05 11:14 49.20319 -123.20072 19 ft 9 kts 311°
2026-05-05 11:14 49.20362 -123.20123 19 ft 7 kts 340°
2026-05-05 11:15 49.20420 -123.20123 19 ft 8 kts
2026-05-05 11:15 49.20477 -123.20108 19 ft 7 kts 11°
2026-05-05 11:15 49.20511 -123.20084 19 ft 4 kts 57°
2026-05-05 11:15 49.20512 -123.20041 19 ft 4 kts 98°
2026-05-05 11:16 49.20495 -123.19875 19 ft 41 kts 100°
2026-05-05 11:16 49.20409 -123.19119 19 ft 101 kts 100°
2026-05-05 11:16 49.20256 -123.17788 20 ft 152 kts 99°
2026-05-05 11:16 49.20063 -123.16078 407 ft 164 kts 100°
2026-05-05 11:17 49.19856 -123.14391 1012 ft 163 kts 101°
2026-05-05 11:17 49.19665 -123.12679 1422 ft 168 kts 101°
2026-05-05 11:17 49.19490 -123.10823 1673 ft 184 kts 99°
2026-05-05 11:17 49.19324 -123.08812 2023 ft 195 kts 98°
2026-05-05 11:18 49.19154 -123.06690 2254 ft 213 kts 98°
2026-05-05 11:18 49.18957 -123.04335 2532 ft 230 kts 98°
2026-05-05 11:18 49.18740 -123.01831 2852 ft 246 kts 98°
2026-05-05 11:18 49.18494 -122.99197 3287 ft 256 kts 99°
2026-05-05 11:19 49.17840 -122.96681 3887 ft 260 kts 129°
2026-05-05 11:19 49.16390 -122.95104 4470 ft 264 kts 162°
2026-05-05 11:19 49.14580 -122.94953 5068 ft 265 kts 196°
2026-05-05 11:19 49.12986 -122.96341 5548 ft 270 kts 229°
2026-05-05 11:20 49.12089 -122.98807 6070 ft 270 kts 261°
2026-05-05 11:20 49.12094 -123.01620 6648 ft 268 kts 285°
2026-05-05 11:20 49.12725 -123.04273 7158 ft 271 kts 294°
2026-05-05 11:20 49.13483 -123.06973 7604 ft 279 kts 295°
2026-05-05 11:21 49.14259 -123.09692 8186 ft 281 kts 295°
2026-05-05 11:21 49.15039 -123.12428 8742 ft 283 kts 295°
2026-05-05 11:21 49.15821 -123.15186 9271 ft 286 kts 295°
2026-05-05 11:21 49.16618 -123.18008 9804 ft 290 kts 295°
2026-05-05 11:22 49.17410 -123.20816 10293 ft 294 kts 295°
2026-05-05 11:22 49.18236 -123.23751 10552 ft 307 kts 295°
2026-05-05 11:22 49.19095 -123.26808 10796 ft 321 kts 295°
2026-05-05 11:22 49.20001 -123.30036 11057 ft 334 kts 295°
2026-05-05 11:23 49.20916 -123.33305 11506 ft 339 kts 295°
2026-05-05 11:23 49.21836 -123.36603 12095 ft 340 kts 295°
2026-05-05 11:23 49.22761 -123.39925 12667 ft 342 kts 295°
2026-05-05 11:23 49.23700 -123.43295 13228 ft 344 kts 296°
2026-05-05 11:24 49.24633 -123.46648 13768 ft 346 kts 296°
2026-05-05 11:24 49.25570 -123.50024 14300 ft 348 kts 296°
2026-05-05 11:24 49.26521 -123.53449 14804 ft 351 kts 296°
2026-05-05 11:24 49.27466 -123.56855 15308 ft 353 kts 296°
2026-05-05 11:25 49.28431 -123.60344 15808 ft 356 kts 296°
2026-05-05 11:25 49.29392 -123.63824 16321 ft 358 kts 297°
2026-05-05 11:25 49.30354 -123.67314 16836 ft 361 kts 296°
2026-05-05 11:25 49.31332 -123.70861 17326 ft 363 kts 296°
2026-05-05 11:26 49.32310 -123.74419 17825 ft 365 kts 296°
2026-05-05 11:26 49.33302 -123.78032 18335 ft 368 kts 296°
2026-05-05 11:26 49.34286 -123.81619 18832 ft 370 kts 296°
2026-05-05 11:26 49.35292 -123.85229 19322 ft 372 kts 298°
2026-05-05 11:27 49.36437 -123.88814 19817 ft 372 kts 301°
2026-05-05 11:27 49.37653 -123.92300 20284 ft 374 kts 302°
2026-05-05 11:27 49.38883 -123.95785 20742 ft 377 kts 302°
2026-05-05 11:27 49.40142 -123.99355 21173 ft 379 kts 302°
2026-05-05 11:28 49.41379 -124.02871 21603 ft 382 kts 302°
2026-05-05 11:28 49.42652 -124.06498 22056 ft 383 kts 301°
2026-05-05 11:28 49.43902 -124.10066 22474 ft 386 kts 301°
2026-05-05 11:28 49.45179 -124.13718 22890 ft 388 kts 301°
2026-05-05 11:29 49.46447 -124.17348 23290 ft 390 kts 301°
2026-05-05 11:29 49.47738 -124.21053 23689 ft 391 kts 301°
2026-05-05 11:29 49.49012 -124.24715 24060 ft 393 kts 301°
2026-05-05 11:29 49.50306 -124.28440 24442 ft 395 kts 301°
2026-05-05 11:30 49.51590 -124.32139 24810 ft 396 kts 301°
2026-05-05 11:30 49.52888 -124.35888 25153 ft 398 kts 301°
2026-05-05 11:30 49.54191 -124.39652 25508 ft 400 kts 301°
2026-05-05 11:30 49.55489 -124.43411 25843 ft 402 kts 301°
2026-05-05 11:31 49.56799 -124.47209 26177 ft 403 kts 301°
2026-05-05 11:31 49.58115 -124.51032 26507 ft 405 kts 301°
2026-05-05 11:31 49.59434 -124.54863 26826 ft 407 kts 301°
2026-05-05 11:31 49.60744 -124.58682 27139 ft 408 kts 301°
2026-05-05 11:32 49.62067 -124.62540 27458 ft 409 kts 301°
2026-05-05 11:32 49.63401 -124.66439 27756 ft 411 kts 300°
2026-05-05 11:32 49.64737 -124.70347 28046 ft 413 kts 300°
2026-05-05 11:32 49.66068 -124.74246 28325 ft 414 kts 300°
2026-05-05 11:33 49.67412 -124.78192 28601 ft 416 kts 300°
2026-05-05 11:33 49.68758 -124.82153 28880 ft 417 kts 300°
2026-05-05 11:33 49.70101 -124.86108 29155 ft 419 kts 300°
2026-05-05 11:33 49.71518 -124.90041 29433 ft 419 kts 303°
2026-05-05 11:34 49.73043 -124.93851 29702 ft 420 kts 304°
2026-05-05 11:34 49.74593 -124.97630 29954 ft 421 kts 304°
2026-05-05 11:34 49.76172 -125.01468 30195 ft 422 kts 304°
2026-05-05 11:34 49.77732 -125.05263 30413 ft 424 kts 304°
2026-05-05 11:35 49.79309 -125.09108 30632 ft 425 kts 304°
2026-05-05 11:35 49.80892 -125.12974 30839 ft 427 kts 304°
2026-05-05 11:35 49.82487 -125.16878 31051 ft 428 kts 304°
2026-05-05 11:35 49.84076 -125.20772 31257 ft 430 kts 304°
2026-05-05 11:36 49.85660 -125.24662 31460 ft 431 kts 304°
2026-05-05 11:36 49.87251 -125.28577 31660 ft 432 kts 304°
2026-05-05 11:36 49.88851 -125.32519 31860 ft 433 kts 304°
2026-05-05 11:36 49.90463 -125.36498 32048 ft 434 kts 304°
2026-05-05 11:37 49.92064 -125.40455 32235 ft 436 kts 304°
2026-05-05 11:37 49.93663 -125.44412 32418 ft 437 kts 304°
2026-05-05 11:37 49.95271 -125.48398 32604 ft 438 kts 304°
2026-05-05 11:37 49.96892 -125.52425 32783 ft 439 kts 304°
2026-05-05 11:38 49.98505 -125.56434 32964 ft 440 kts 304°
2026-05-05 11:38 50.00115 -125.60445 33169 ft 440 kts 304°
2026-05-05 11:38 50.01735 -125.64488 33382 ft 440 kts 304°
2026-05-05 11:38 50.03347 -125.68516 33586 ft 440 kts 303°
2026-05-05 11:39 50.04967 -125.72569 33769 ft 441 kts 303°
2026-05-05 11:39 50.06573 -125.76595 33937 ft 442 kts 303°
2026-05-05 11:39 50.08186 -125.80638 33941 ft 443 kts 303°
2026-05-05 11:40 50.11439 -125.88824 33956 ft 443 kts 303°
2026-05-05 11:40 50.14680 -125.96999 33962 ft 443 kts 303°
2026-05-05 11:41 50.17903 -126.05158 33968 ft 443 kts 303°
2026-05-05 11:41 50.21114 -126.13312 33990 ft 444 kts 303°
2026-05-05 11:42 50.24341 -126.21533 34011 ft 443 kts 303°
2026-05-05 11:42 50.27538 -126.29704 34036 ft 443 kts 303°
2026-05-05 11:43 50.30751 -126.37936 34021 ft 443 kts 303°
2026-05-05 11:43 50.33938 -126.46134 33998 ft 443 kts 303°
2026-05-05 11:44 50.37135 -126.54378 33971 ft 444 kts 302°
2026-05-05 11:44 50.40307 -126.62589 33958 ft 444 kts 302°
2026-05-05 11:45 50.43502 -126.70888 33956 ft 445 kts 302°
2026-05-05 11:45 50.46687 -126.79177 33960 ft 445 kts 302°
2026-05-05 11:46 50.49861 -126.87472 33952 ft 445 kts 302°
2026-05-05 11:46 50.53033 -126.95785 33945 ft 445 kts 301°
2026-05-05 11:47 50.56189 -127.04085 33946 ft 444 kts 301°
2026-05-05 11:47 50.59331 -127.12378 33945 ft 444 kts 301°
2026-05-05 11:48 50.64057 -127.24898 33939 ft 445 kts 301°
2026-05-05 11:48 50.67202 -127.33262 33939 ft 445 kts 302°
2026-05-05 11:49 50.70602 -127.41368 33947 ft 445 kts 306°
2026-05-05 11:49 50.74185 -127.49322 33951 ft 445 kts 306°
2026-05-05 11:50 50.77761 -127.57262 33950 ft 445 kts 306°
2026-05-05 11:50 50.81337 -127.65231 33946 ft 446 kts 304°
2026-05-05 11:51 50.84882 -127.73165 33945 ft 446 kts 304°
2026-05-05 11:51 50.88438 -127.81154 33944 ft 446 kts 304°
2026-05-05 11:52 50.91985 -127.89144 33943 ft 446 kts 304°
2026-05-05 11:52 50.95546 -127.97190 33942 ft 445 kts 304°
2026-05-05 11:53 50.99072 -128.05177 33947 ft 446 kts 304°
2026-05-05 11:53 51.02626 -128.13254 33949 ft 447 kts 304°
2026-05-05 11:54 51.06166 -128.21329 33950 ft 447 kts 304°
2026-05-05 11:54 51.09697 -128.29410 33944 ft 446 kts 304°
2026-05-05 11:55 51.13222 -128.37500 33951 ft 446 kts 304°
2026-05-05 11:55 51.16759 -128.45641 33947 ft 446 kts 304°
2026-05-05 11:56 51.20267 -128.53740 33948 ft 447 kts 304°
2026-05-05 11:56 51.23790 -128.61899 33940 ft 447 kts 304°
2026-05-05 11:57 51.27290 -128.70030 33946 ft 448 kts 303°
2026-05-05 11:57 51.30820 -128.78259 33943 ft 448 kts 303°
2026-05-05 11:58 51.34323 -128.86450 33945 ft 448 kts 303°
2026-05-05 11:58 51.37809 -128.94629 33941 ft 448 kts 303°
2026-05-05 11:59 51.41303 -129.02849 33940 ft 447 kts 303°
2026-05-05 11:59 51.44789 -129.11078 33939 ft 448 kts 303°
2026-05-05 12:00 51.48271 -129.19324 33938 ft 449 kts 303°
2026-05-05 12:00 51.51739 -129.27562 33938 ft 449 kts 303°
2026-05-05 12:01 51.55225 -129.35870 33936 ft 449 kts 302°
2026-05-05 12:01 51.58695 -129.44168 33937 ft 449 kts 302°
2026-05-05 12:02 51.62160 -129.52480 33935 ft 449 kts 302°
2026-05-05 12:02 51.65628 -129.60820 33940 ft 449 kts 302°
2026-05-05 12:03 51.69094 -129.69189 33950 ft 450 kts 301°
2026-05-05 12:03 51.72537 -129.77530 33951 ft 450 kts 301°
2026-05-05 12:04 51.75991 -129.85925 33950 ft 450 kts 301°
2026-05-05 12:04 51.79423 -129.94290 33952 ft 451 kts 301°
2026-05-05 12:05 51.82879 -130.02745 33950 ft 451 kts 301°
2026-05-05 12:05 51.86321 -130.11192 33947 ft 451 kts 301°
2026-05-05 12:06 51.89738 -130.19604 33947 ft 452 kts 301°
2026-05-05 12:06 51.93179 -130.28105 33939 ft 452 kts 301°
2026-05-05 12:07 51.96599 -130.36581 33929 ft 452 kts 301°
2026-05-05 12:07 52.00037 -130.45131 33926 ft 452 kts 301°
2026-05-05 12:08 52.03451 -130.53650 33925 ft 453 kts 301°
2026-05-05 12:08 52.06866 -130.62195 33924 ft 453 kts 301°
2026-05-05 12:09 52.10263 -130.70725 33926 ft 453 kts 300°
2026-05-05 12:09 52.13687 -130.79355 33924 ft 453 kts 300°
2026-05-05 12:10 52.17073 -130.87917 33925 ft 453 kts 300°
2026-05-05 12:10 52.20485 -130.96571 33925 ft 454 kts 300°
2026-05-05 12:11 52.23875 -131.05202 33926 ft 455 kts 299°
2026-05-05 12:11 52.27277 -131.13892 33931 ft 455 kts 299°
2026-05-05 12:12 52.30674 -131.22601 34019 ft 457 kts 299°
2026-05-05 12:12 52.32376 -131.26971 34310 ft 456 kts 299°
2026-05-05 12:12 52.34046 -131.31268 34648 ft 454 kts 299°
2026-05-05 12:13 52.35743 -131.35645 34943 ft 452 kts 299°
2026-05-05 12:13 52.37421 -131.39975 35196 ft 452 kts 299°
2026-05-05 12:13 52.39093 -131.44296 35434 ft 451 kts 299°
2026-05-05 12:13 52.40752 -131.48598 35690 ft 450 kts 299°
2026-05-05 12:14 52.42410 -131.52899 35915 ft 449 kts 298°
2026-05-05 12:14 52.44058 -131.57182 35946 ft 448 kts 298°
2026-05-05 12:14 52.47387 -131.65868 35949 ft 448 kts 297°
2026-05-05 12:15 52.50662 -131.74437 35955 ft 448 kts 297°
2026-05-05 12:15 52.53957 -131.83087 35957 ft 449 kts 297°
2026-05-05 12:16 52.57263 -131.91797 35962 ft 450 kts 297°
2026-05-05 12:16 52.60557 -132.00502 35965 ft 449 kts 297°
2026-05-05 12:17 52.63841 -132.09213 35969 ft 450 kts 297°
2026-05-05 12:17 52.67112 -132.17920 35970 ft 450 kts 297°
2026-05-05 12:18 52.70377 -132.26637 35974 ft 450 kts 297°
2026-05-05 12:18 52.73660 -132.35432 35976 ft 450 kts 297°
2026-05-05 12:19 52.76922 -132.44206 35977 ft 450 kts 297°
2026-05-05 12:19 52.80164 -132.52949 35983 ft 451 kts 297°
2026-05-05 12:20 52.83429 -132.61793 35990 ft 451 kts 296°
2026-05-05 12:20 52.86686 -132.70648 35996 ft 452 kts 296°
2026-05-05 12:21 52.89916 -132.79451 35997 ft 451 kts 296°
2026-05-05 12:21 52.93155 -132.88316 35998 ft 452 kts 295°
2026-05-05 12:22 52.96404 -132.97235 36004 ft 452 kts 295°
2026-05-05 12:22 52.99637 -133.06151 36007 ft 452 kts 295°
2026-05-05 12:23 53.02869 -133.15089 36011 ft 453 kts 295°
2026-05-05 12:23 53.06088 -133.24023 36014 ft 453 kts 295°
2026-05-05 12:24 53.09304 -133.32982 36016 ft 454 kts 295°
2026-05-05 12:24 53.12524 -133.41985 36014 ft 453 kts 295°
2026-05-05 12:25 53.15735 -133.50993 36016 ft 453 kts 295°
2026-05-05 12:25 53.18921 -133.59967 36018 ft 453 kts 295°
2026-05-05 12:26 53.22131 -133.69040 36019 ft 453 kts 294°
2026-05-05 12:26 53.25314 -133.78070 36021 ft 454 kts 294°
2026-05-05 12:27 53.28495 -133.87126 36022 ft 454 kts 294°
2026-05-05 12:27 53.31667 -133.96187 36025 ft 455 kts 294°
2026-05-05 12:28 53.34864 -134.05353 36024 ft 456 kts 294°
2026-05-05 12:28 53.38018 -134.14436 36026 ft 456 kts 293°
2026-05-05 12:29 53.41198 -134.23624 36026 ft 456 kts 293°
2026-05-05 12:29 53.44351 -134.32767 36030 ft 456 kts 293°
2026-05-05 12:30 53.47506 -134.41945 36027 ft 455 kts 293°
2026-05-05 12:30 53.50644 -134.51114 36031 ft 455 kts 293°
2026-05-05 12:31 53.53787 -134.60330 36037 ft 455 kts 293°
2026-05-05 12:31 53.56906 -134.69507 36036 ft 455 kts 292°
2026-05-05 12:32 53.60019 -134.78702 36035 ft 455 kts 292°
2026-05-05 12:32 53.63147 -134.87978 36036 ft 454 kts 292°
2026-05-05 12:33 53.66244 -134.97197 36040 ft 455 kts 292°
2026-05-05 12:33 53.69345 -135.06461 36037 ft 454 kts 292°
2026-05-05 12:34 53.72417 -135.15677 36043 ft 454 kts 291°
2026-05-05 12:34 53.75493 -135.24936 36040 ft 455 kts 291°
2026-05-05 12:35 53.78565 -135.34224 36043 ft 456 kts 291°
2026-05-05 12:35 53.81657 -135.43602 36048 ft 456 kts 291°
2026-05-05 12:36 53.84737 -135.52980 36049 ft 457 kts 291°
2026-05-05 12:36 53.87794 -135.62321 36046 ft 456 kts 291°
2026-05-05 12:37 53.90849 -135.71699 36051 ft 456 kts 290°
2026-05-05 12:37 53.93902 -135.81107 36054 ft 457 kts 290°
2026-05-05 12:38 53.96944 -135.90518 36052 ft 456 kts 290°
2026-05-05 12:38 53.99992 -135.99988 36047 ft 457 kts 290°
2026-05-05 12:39 54.03044 -136.09442 36048 ft 458 kts 290°
2026-05-05 12:39 54.06087 -136.18878 36048 ft 457 kts 290°
2026-05-05 12:40 54.09123 -136.28336 36044 ft 456 kts 290°
2026-05-05 12:40 54.12141 -136.37785 36044 ft 458 kts 290°
2026-05-05 12:41 54.15169 -136.47299 36045 ft 458 kts 290°
2026-05-05 12:41 54.18174 -136.56776 36045 ft 457 kts 289°
2026-05-05 12:42 54.21191 -136.66330 36042 ft 456 kts 289°
2026-05-05 12:42 54.24168 -136.75798 36045 ft 456 kts 288°
2026-05-05 12:43 54.27158 -136.85349 36045 ft 456 kts 288°
2026-05-05 12:43 54.30133 -136.94884 36042 ft 456 kts 288°
2026-05-05 12:44 54.33105 -137.04445 36042 ft 457 kts 288°
2026-05-05 12:44 54.36077 -137.14052 36044 ft 457 kts 288°
2026-05-05 12:45 54.39014 -137.23578 36041 ft 456 kts 288°
2026-05-05 12:45 54.41961 -137.33179 36040 ft 457 kts 288°
2026-05-05 12:46 54.44903 -137.42799 36040 ft 456 kts 288°
2026-05-05 12:46 54.47836 -137.52425 36039 ft 457 kts 288°
2026-05-05 12:47 54.50769 -137.62093 36038 ft 456 kts 288°
2026-05-05 12:47 54.53669 -137.71690 36042 ft 454 kts 287°
2026-05-05 12:48 54.56566 -137.81323 36038 ft 454 kts 287°
2026-05-05 12:48 54.59454 -137.90961 36039 ft 455 kts 287°
2026-05-05 12:49 54.62323 -138.00577 36039 ft 454 kts 287°
2026-05-05 12:49 54.65202 -138.10260 36037 ft 455 kts 287°
2026-05-05 12:50 54.68066 -138.19940 35800 ft 455 kts 286°
2026-05-05 12:50 54.69515 -138.24852 35937 ft 456 kts 287°
2026-05-05 12:50 54.70942 -138.29700 35990 ft 458 kts 287°
2026-05-05 12:51 54.73811 -138.39471 36028 ft 458 kts 287°
2026-05-05 12:51 54.76678 -138.49274 36032 ft 458 kts 287°
2026-05-05 12:52 54.79530 -138.59070 36034 ft 458 kts 287°
2026-05-05 12:52 54.82383 -138.68910 36033 ft 458 kts 285°
2026-05-05 12:53 54.85215 -138.78711 36033 ft 456 kts 285°
2026-05-05 12:53 54.88039 -138.88539 36034 ft 457 kts 285°
2026-05-05 12:54 54.92263 -139.03310 36030 ft 458 kts 285°
2026-05-05 12:55 54.95073 -139.13190 36023 ft 458 kts 285°
2026-05-05 12:55 54.97890 -139.23137 36022 ft 458 kts 285°
2026-05-05 12:56 55.00689 -139.33060 36017 ft 460 kts 285°
2026-05-05 12:56 55.03492 -139.43043 36013 ft 461 kts 285°
2026-05-05 12:57 55.06278 -139.53003 36010 ft 460 kts 285°
2026-05-05 12:57 55.09058 -139.62984 36001 ft 460 kts 285°
2026-05-05 12:58 55.11832 -139.72990 35998 ft 458 kts 284°
2026-05-05 12:58 55.14573 -139.82913 36000 ft 457 kts 284°
2026-05-05 12:59 55.17332 -139.92963 35990 ft 459 kts 284°
2026-05-05 12:59 55.20070 -140.02968 35992 ft 459 kts 284°
2026-05-05 13:00 55.24163 -140.18008 35986 ft 457 kts 284°
2026-05-05 13:01 55.29604 -140.38162 35970 ft 460 kts 285°
2026-05-05 13:01 55.32305 -140.48227 35967 ft 460 kts 285°
2026-05-05 13:02 55.35020 -140.58398 35961 ft 460 kts 285°
2026-05-05 13:02 55.37709 -140.68510 35946 ft 460 kts 284°
2026-05-05 13:03 55.40400 -140.78674 35949 ft 459 kts 284°
2026-05-05 13:03 55.43082 -140.88853 35938 ft 460 kts 284°
2026-05-05 13:04 55.45758 -140.99060 35931 ft 460 kts 285°
2026-05-05 13:04 55.48421 -141.09259 35931 ft 461 kts 285°
2026-05-05 13:05 55.51070 -141.19441 35936 ft 460 kts 285°
2026-05-05 13:05 55.53710 -141.29643 35935 ft 460 kts 285°
2026-05-05 13:06 55.56357 -141.39914 35928 ft 459 kts 285°
2026-05-05 13:06 55.58987 -141.50174 35924 ft 460 kts 285°
2026-05-05 13:07 55.61601 -141.60419 35930 ft 460 kts 285°
2026-05-05 13:07 55.64206 -141.70673 35923 ft 460 kts 284°
2026-05-05 13:08 55.66817 -141.80992 35916 ft 460 kts 284°
2026-05-05 13:08 55.69410 -141.91298 35921 ft 460 kts 284°
2026-05-05 13:09 55.71997 -142.01622 35926 ft 461 kts 284°
2026-05-05 13:09 55.74574 -142.11954 35927 ft 462 kts 284°
2026-05-05 13:10 55.77161 -142.22378 35916 ft 462 kts 284°
2026-05-05 13:10 55.79733 -142.32783 35910 ft 462 kts 284°
2026-05-05 13:11 55.82287 -142.43173 35912 ft 462 kts 284°
2026-05-05 13:11 55.84850 -142.53651 35901 ft 462 kts 284°
2026-05-05 13:12 55.87385 -142.64059 35892 ft 461 kts 284°
2026-05-05 13:12 55.89908 -142.74466 35886 ft 461 kts 284°
2026-05-05 13:13 55.92428 -142.84921 35884 ft 462 kts 284°
2026-05-05 13:13 55.94956 -142.95451 35877 ft 462 kts 284°
2026-05-05 13:14 55.97457 -143.05922 35871 ft 462 kts 284°
2026-05-05 13:14 55.99950 -143.16415 35862 ft 463 kts 284°
2026-05-05 13:15 56.02458 -143.27014 35857 ft 463 kts 284°
2026-05-05 13:15 56.04940 -143.37555 35851 ft 463 kts 284°
2026-05-05 13:16 56.07413 -143.48116 35837 ft 462 kts 284°
2026-05-05 13:16 56.09896 -143.58760 35842 ft 463 kts 284°
2026-05-05 13:17 56.12348 -143.69327 35833 ft 462 kts 284°
2026-05-05 13:17 56.14800 -143.79954 35837 ft 463 kts 284°
2026-05-05 13:18 56.17242 -143.90590 35827 ft 463 kts 284°
2026-05-05 13:18 56.19586 -144.00850 35821 ft 463 kts 284°
2026-05-05 13:19 56.20799 -144.06177 36032 ft 463 kts 284°
2026-05-05 13:19 56.22017 -144.11540 35919 ft 461 kts 284°
2026-05-05 13:19 56.24406 -144.22107 35839 ft 460 kts 284°
2026-05-05 13:20 56.26815 -144.32816 35939 ft 462 kts 284°
2026-05-05 13:20 56.27998 -144.38095 36120 ft 460 kts 284°
2026-05-05 13:20 56.29195 -144.43449 36303 ft 459 kts 284°
2026-05-05 13:21 56.30367 -144.48706 36468 ft 459 kts 284°
2026-05-05 13:21 56.31559 -144.54062 36588 ft 459 kts 284°
2026-05-05 13:21 56.32732 -144.59352 36703 ft 459 kts 284°
2026-05-05 13:21 56.33908 -144.64665 36823 ft 459 kts 285°
2026-05-05 13:22 56.35092 -144.70030 36956 ft 459 kts 284°
2026-05-05 13:22 56.36252 -144.75296 37084 ft 459 kts 284°
2026-05-05 13:22 56.37427 -144.80644 37212 ft 459 kts 284°
2026-05-05 13:22 56.38600 -144.85997 37320 ft 459 kts 284°
2026-05-05 13:23 56.39766 -144.91336 37425 ft 460 kts 284°
2026-05-05 13:23 56.40937 -144.96704 37535 ft 460 kts 284°
2026-05-05 13:23 56.42092 -145.02016 37636 ft 460 kts 284°
2026-05-05 13:23 56.43251 -145.07358 37735 ft 460 kts 284°
2026-05-05 13:24 56.45586 -145.18167 37784 ft 462 kts 284°
2026-05-05 13:24 56.47897 -145.28922 37779 ft 461 kts 284°
2026-05-05 13:25 56.50194 -145.39664 37779 ft 461 kts 284°
2026-05-05 13:25 56.52498 -145.50505 37770 ft 462 kts 285°
2026-05-05 13:26 56.54787 -145.61330 37761 ft 463 kts 285°
2026-05-05 13:26 56.57070 -145.72179 37770 ft 463 kts 284°
2026-05-05 13:27 56.59338 -145.83015 37754 ft 463 kts 284°
2026-05-05 13:27 56.61613 -145.93950 37763 ft 464 kts 284°
2026-05-05 13:28 56.63863 -146.04816 37740 ft 464 kts 284°
2026-05-05 13:28 56.66123 -146.15799 37736 ft 464 kts 284°
2026-05-05 13:29 56.68357 -146.26708 37733 ft 464 kts 284°
2026-05-05 13:29 56.70595 -146.37695 37722 ft 465 kts 284°
2026-05-05 13:30 56.72825 -146.48709 37718 ft 465 kts 284°
2026-05-05 13:30 56.75044 -146.59724 37722 ft 465 kts 284°
2026-05-05 13:31 56.77269 -146.70833 37726 ft 465 kts 284°
2026-05-05 13:31 56.79446 -146.81767 37727 ft 464 kts 284°
2026-05-05 13:32 56.81634 -146.92821 37716 ft 464 kts 284°
2026-05-05 13:32 56.83807 -147.03857 37708 ft 465 kts 284°
2026-05-05 13:33 56.85980 -147.14955 37702 ft 466 kts 284°
2026-05-05 13:33 56.88134 -147.26012 37705 ft 466 kts 284°
2026-05-05 13:34 56.90291 -147.37148 37695 ft 466 kts 284°
2026-05-05 13:34 56.92434 -147.48280 37697 ft 466 kts 284°
2026-05-05 13:35 56.94566 -147.59421 37698 ft 466 kts 284°
2026-05-05 13:35 56.96684 -147.70549 37690 ft 466 kts 284°
2026-05-05 13:36 56.98804 -147.81766 37687 ft 466 kts 284°
2026-05-05 13:36 57.00902 -147.92921 37674 ft 466 kts 284°
2026-05-05 13:37 57.02998 -148.04129 37667 ft 466 kts 284°
2026-05-05 13:37 57.05092 -148.15395 37672 ft 466 kts 284°
2026-05-05 13:38 57.07158 -148.26573 37660 ft 466 kts 284°
2026-05-05 13:38 57.09231 -148.37859 37655 ft 466 kts 284°
2026-05-05 13:39 57.11286 -148.49129 37650 ft 467 kts 284°
2026-05-05 13:39 57.13333 -148.60419 37644 ft 467 kts 284°
2026-05-05 13:40 57.15372 -148.71730 37641 ft 467 kts 284°
2026-05-05 13:40 57.17406 -148.83083 37636 ft 468 kts 284°
2026-05-05 13:41 57.19432 -148.94452 37627 ft 468 kts 284°
2026-05-05 13:41 57.21440 -149.05800 37623 ft 468 kts 284°
2026-05-05 13:42 57.23444 -149.17191 37619 ft 468 kts 284°
2026-05-05 13:42 57.25440 -149.28603 37619 ft 468 kts 284°
2026-05-05 13:43 57.27420 -149.40007 37614 ft 468 kts 284°
2026-05-05 13:43 57.29395 -149.51443 37606 ft 468 kts 284°
2026-05-05 13:44 57.31366 -149.62929 37603 ft 468 kts 284°
2026-05-05 13:44 57.33312 -149.74352 37594 ft 467 kts 284°
2026-05-05 13:45 57.35241 -149.85733 37588 ft 467 kts 284°
2026-05-05 13:45 57.37175 -149.97229 37591 ft 467 kts 284°
2026-05-05 13:46 57.39090 -150.08681 37601 ft 468 kts 284°
2026-05-05 13:46 57.40990 -150.20114 37599 ft 468 kts 284°
2026-05-05 13:47 57.42893 -150.31644 37593 ft 468 kts 284°
2026-05-05 13:47 57.44776 -150.43127 37589 ft 469 kts 284°
2026-05-05 13:48 57.46654 -150.54688 37586 ft 469 kts 284°
2026-05-05 13:48 57.48438 -150.66325 37584 ft 468 kts 283°
2026-05-05 13:49 57.50187 -150.77945 37587 ft 468 kts 283°
2026-05-05 13:49 57.51918 -150.89487 37588 ft 468 kts 283°
2026-05-05 13:50 57.53651 -151.01106 37587 ft 468 kts 283°
2026-05-05 13:50 57.55375 -151.12721 37587 ft 468 kts 283°
2026-05-05 13:51 57.57098 -151.24419 37582 ft 468 kts 283°
2026-05-05 13:51 57.58792 -151.36005 37579 ft 469 kts 283°
2026-05-05 13:52 57.60490 -151.47700 37577 ft 469 kts 283°
2026-05-05 13:52 57.62177 -151.59393 37577 ft 469 kts 283°
2026-05-05 13:53 57.63862 -151.71172 37574 ft 469 kts 282°
2026-05-05 13:53 57.65521 -151.82858 37578 ft 468 kts 282°
2026-05-05 13:54 57.67171 -151.94559 37577 ft 468 kts 282°
2026-05-05 13:54 57.68809 -152.06267 37586 ft 469 kts 282°
2026-05-05 13:55 57.70432 -152.17952 37588 ft 469 kts 282°
2026-05-05 13:55 57.72057 -152.29748 37596 ft 469 kts 283°
2026-05-05 13:56 57.73661 -152.41475 37594 ft 468 kts 283°
2026-05-05 13:56 57.75259 -152.53250 37592 ft 469 kts 283°
2026-05-05 13:57 57.76846 -152.65037 37579 ft 469 kts 282°
2026-05-05 13:57 57.78419 -152.76810 37558 ft 468 kts 282°
2026-05-05 13:58 57.79982 -152.88588 37550 ft 467 kts 282°
2026-05-05 13:58 57.81532 -153.00374 37551 ft 467 kts 282°
2026-05-05 13:59 57.83836 -153.18062 37564 ft 467 kts 282°
2026-05-05 14:00 57.85860 -153.33780 37599 ft 467 kts 282°
2026-05-05 14:00 57.87613 -153.47523 37612 ft 467 kts 282°
2026-05-05 14:01 57.89107 -153.59345 37621 ft 467 kts 282°
2026-05-05 14:01 57.90592 -153.71196 37623 ft 467 kts 281°
2026-05-05 14:02 57.92065 -153.83048 37626 ft 467 kts 281°
2026-05-05 14:02 57.93525 -153.94879 37645 ft 467 kts 282°
2026-05-05 14:03 57.94975 -154.06747 37649 ft 468 kts 282°
2026-05-05 14:03 57.96410 -154.18588 37653 ft 468 kts 282°
2026-05-05 14:04 57.97839 -154.30475 37657 ft 468 kts 282°
2026-05-05 14:04 57.99262 -154.42413 37655 ft 468 kts 282°
2026-05-05 14:05 58.00673 -154.54353 37658 ft 467 kts 282°
2026-05-05 14:05 58.02070 -154.66289 37652 ft 467 kts 281°
2026-05-05 14:06 58.03457 -154.78242 37648 ft 467 kts 281°
2026-05-05 14:06 58.04833 -154.90204 37639 ft 467 kts 281°
2026-05-05 14:07 58.06197 -155.02168 37630 ft 468 kts 281°
2026-05-05 14:07 58.07552 -155.14151 37625 ft 468 kts 281°
2026-05-05 14:08 58.08892 -155.26126 37613 ft 467 kts 281°
2026-05-05 14:08 58.10215 -155.38046 37620 ft 467 kts 281°
2026-05-05 14:09 58.11537 -155.50070 37639 ft 466 kts 281°
2026-05-05 14:09 58.12833 -155.61977 37651 ft 466 kts 281°
2026-05-05 14:10 58.14134 -155.74036 37653 ft 465 kts 280°
2026-05-05 14:10 58.15408 -155.85956 37657 ft 466 kts 280°
2026-05-05 14:11 58.16684 -155.97998 37663 ft 466 kts 280°
2026-05-05 14:11 58.17944 -156.10002 37662 ft 466 kts 280°
2026-05-05 14:12 58.19189 -156.21997 37661 ft 466 kts 280°
2026-05-05 14:12 58.20425 -156.34024 37667 ft 466 kts 281°
2026-05-05 14:13 58.21645 -156.46004 37670 ft 465 kts 281°
2026-05-05 14:13 58.22860 -156.58058 37673 ft 465 kts 281°
2026-05-05 14:14 58.24057 -156.70052 37674 ft 465 kts 279°
2026-05-05 14:14 58.25252 -156.82152 37675 ft 465 kts 280°
2026-05-05 14:15 58.26427 -156.94163 37680 ft 466 kts 280°
2026-05-05 14:15 58.27594 -157.06232 37675 ft 466 kts 280°
2026-05-05 14:16 58.28755 -157.18339 37682 ft 466 kts 280°
2026-05-05 14:16 58.29898 -157.30391 37683 ft 465 kts 280°
2026-05-05 14:17 58.31026 -157.42418 37685 ft 464 kts 280°
2026-05-05 14:17 58.32147 -157.54504 37690 ft 464 kts 280°
2026-05-05 14:18 58.33250 -157.66534 37693 ft 464 kts 279°
2026-05-05 14:18 58.34342 -157.78558 37694 ft 464 kts 279°
2026-05-05 14:19 58.35431 -157.90681 37697 ft 465 kts 279°
2026-05-05 14:19 58.36506 -158.02785 37702 ft 465 kts 279°
2026-05-05 14:20 58.37566 -158.14862 37709 ft 465 kts 279°
2026-05-05 14:20 58.38616 -158.26967 37716 ft 464 kts 279°
2026-05-05 14:21 58.39656 -158.39082 37724 ft 465 kts 279°
2026-05-05 14:21 58.40688 -158.51242 37725 ft 465 kts 279°
2026-05-05 14:22 58.41707 -158.63399 37725 ft 464 kts 280°
2026-05-05 14:22 58.42712 -158.75555 37726 ft 465 kts 279°
2026-05-05 14:23 58.43704 -158.87665 37726 ft 465 kts 279°
2026-05-05 14:23 58.44693 -158.99893 37726 ft 466 kts 279°
2026-05-05 14:24 58.45663 -159.12030 37732 ft 466 kts 279°
2026-05-05 14:24 58.46627 -159.24255 37733 ft 465 kts 279°
2026-05-05 14:25 58.47575 -159.36450 37734 ft 465 kts 279°
2026-05-05 14:25 58.48513 -159.48659 37737 ft 464 kts 279°
2026-05-05 14:26 58.49433 -159.60771 37741 ft 464 kts 279°
2026-05-05 14:26 58.50345 -159.72949 37753 ft 464 kts 278°
2026-05-05 14:27 58.51248 -159.85155 37758 ft 463 kts 278°
2026-05-05 14:27 58.52133 -159.97286 37765 ft 463 kts 278°
2026-05-05 14:28 58.53010 -160.09473 37768 ft 463 kts 278°
2026-05-05 14:28 58.53873 -160.21642 37774 ft 463 kts 278°
2026-05-05 14:29 58.54725 -160.33815 37772 ft 463 kts 278°
2026-05-05 14:29 58.55559 -160.45915 37781 ft 463 kts 278°
2026-05-05 14:30 58.56390 -160.58119 37780 ft 463 kts 278°
2026-05-05 14:30 58.57208 -160.70303 37789 ft 463 kts 278°
2026-05-05 14:31 58.58014 -160.82512 37799 ft 464 kts 278°
2026-05-05 14:31 58.58810 -160.94750 37805 ft 464 kts 278°
2026-05-05 14:32 58.59598 -161.07037 37802 ft 464 kts 278°
2026-05-05 14:32 58.60372 -161.19287 37805 ft 464 kts 278°
2026-05-05 14:33 58.61135 -161.31549 37804 ft 464 kts 278°
2026-05-05 14:33 58.61880 -161.43720 37808 ft 464 kts 278°
2026-05-05 14:34 58.62619 -161.56010 37807 ft 464 kts 278°
2026-05-05 14:34 58.63347 -161.68277 37813 ft 464 kts 277°
2026-05-05 14:35 58.64063 -161.80547 37824 ft 465 kts 277°
2026-05-05 14:35 58.64768 -161.92812 37840 ft 465 kts 277°
2026-05-05 14:36 58.65461 -162.05156 37855 ft 465 kts 277°
2026-05-05 14:36 58.66071 -162.17416 37867 ft 464 kts 276°
2026-05-05 14:37 58.66615 -162.29704 37878 ft 464 kts 276°
2026-05-05 14:37 58.67154 -162.42047 37883 ft 464 kts 276°
2026-05-05 14:38 58.67687 -162.54344 37888 ft 464 kts 276°
2026-05-05 14:38 58.68209 -162.66644 37896 ft 464 kts 275°
2026-05-05 14:39 58.68722 -162.78978 37900 ft 463 kts 276°
2026-05-05 14:39 58.69219 -162.91232 37901 ft 463 kts 276°
2026-05-05 14:40 58.69707 -163.03563 37915 ft 462 kts 276°
2026-05-05 14:40 58.70181 -163.15802 37912 ft 462 kts 276°
2026-05-05 14:41 58.70644 -163.28107 37924 ft 462 kts 276°
2026-05-05 14:41 58.71096 -163.40367 37933 ft 462 kts 276°
2026-05-05 14:42 58.71535 -163.52646 37942 ft 463 kts 276°
2026-05-05 14:42 58.71964 -163.64984 37945 ft 463 kts 276°
2026-05-05 14:43 58.72382 -163.77336 37951 ft 463 kts 275°
2026-05-05 14:43 58.72786 -163.89641 37965 ft 462 kts 275°
2026-05-05 14:44 58.73180 -164.01944 37970 ft 462 kts 275°
2026-05-05 14:44 58.73563 -164.14287 37971 ft 462 kts 275°
2026-05-05 14:45 58.73932 -164.26582 37974 ft 462 kts 275°
2026-05-05 14:45 58.74288 -164.38893 37980 ft 462 kts 275°
2026-05-05 14:46 58.74633 -164.51170 37985 ft 463 kts 275°
2026-05-05 14:46 58.74968 -164.63509 37991 ft 463 kts 275°
2026-05-05 14:47 58.75291 -164.75812 37994 ft 463 kts 275°
2026-05-05 14:47 58.75602 -164.88112 38000 ft 462 kts 275°
2026-05-05 14:48 58.75900 -165.00415 38011 ft 462 kts 275°
2026-05-05 14:48 58.76187 -165.12712 38018 ft 462 kts 275°
2026-05-05 14:49 58.76462 -165.25020 38018 ft 462 kts 275°
2026-05-05 14:49 58.76726 -165.37335 38023 ft 462 kts 275°
2026-05-05 14:50 58.76976 -165.49580 38025 ft 461 kts 275°
2026-05-05 14:50 58.77216 -165.61916 38026 ft 460 kts 275°
2026-05-05 14:51 58.77443 -165.74153 38030 ft 459 kts 274°
2026-05-05 14:51 58.77658 -165.86383 38035 ft 459 kts 274°
2026-05-05 14:52 58.77862 -165.98581 38036 ft 459 kts 274°
2026-05-05 14:52 58.78054 -166.10826 38042 ft 459 kts 275°
2026-05-05 14:53 58.78234 -166.23042 38041 ft 459 kts 275°
2026-05-05 14:53 58.78403 -166.35286 38045 ft 459 kts 275°
2026-05-05 14:54 58.78561 -166.47569 38046 ft 458 kts 275°
2026-05-05 14:54 58.78707 -166.59790 38049 ft 458 kts 275°
2026-05-05 14:55 58.78840 -166.71973 38054 ft 457 kts 274°
2026-05-05 14:55 58.78962 -166.84143 38055 ft 457 kts 274°
2026-05-05 14:56 58.79073 -166.96343 38055 ft 457 kts 274°
2026-05-05 14:56 58.79171 -167.08534 38063 ft 457 kts 274°
2026-05-05 14:57 58.79259 -167.20685 38068 ft 456 kts 274°
2026-05-05 14:57 58.79337 -167.32867 38081 ft 456 kts 274°
2026-05-05 14:58 58.79401 -167.45039 38085 ft 457 kts 274°
2026-05-05 14:58 58.79453 -167.57217 38102 ft 456 kts 274°
2026-05-05 14:59 58.79494 -167.69376 38105 ft 456 kts 273°
2026-05-05 14:59 58.79525 -167.81543 38110 ft 456 kts 273°
2026-05-05 15:00 58.79541 -167.91705 38116 ft 456 kts 273°
2026-05-05 15:00 58.79552 -168.05824 38122 ft 455 kts 273°
2026-05-05 15:01 58.79548 -168.18024 38122 ft 456 kts 273°
2026-05-05 15:01 58.79531 -168.30202 38120 ft 456 kts 273°
2026-05-05 15:02 58.79504 -168.42378 38127 ft 456 kts 273°
2026-05-05 15:02 58.79467 -168.54446 38126 ft 455 kts 273°
2026-05-05 15:03 58.79417 -168.66667 38130 ft 455 kts 272°
2026-05-05 15:03 58.79355 -168.78799 38134 ft 454 kts 272°
2026-05-05 15:04 58.79283 -168.90840 38136 ft 454 kts 272°
2026-05-05 15:04 58.79199 -169.02985 38139 ft 454 kts 272°
2026-05-05 15:05 58.79052 -169.21112 38147 ft 453 kts 272°
2026-05-05 15:06 58.78941 -169.33200 38148 ft 453 kts 272°
2026-05-05 15:06 58.78817 -169.45348 38148 ft 453 kts 272°
2026-05-05 15:07 58.78683 -169.57369 38142 ft 453 kts 273°
2026-05-05 15:07 58.78537 -169.69455 38145 ft 453 kts 272°
2026-05-05 15:08 58.78379 -169.81615 38156 ft 454 kts 272°
2026-05-05 15:08 58.78212 -169.93637 38161 ft 454 kts 272°
2026-05-05 15:09 58.78033 -170.05714 38164 ft 453 kts 272°
2026-05-05 15:09 58.77841 -170.17824 38163 ft 452 kts 272°
2026-05-05 15:10 58.77639 -170.29912 38168 ft 452 kts 272°
2026-05-05 15:10 58.77428 -170.41896 38167 ft 451 kts 272°
2026-05-05 15:11 58.77204 -170.53894 38164 ft 451 kts 272°
2026-05-05 15:11 58.76969 -170.65979 38163 ft 452 kts 271°
2026-05-05 15:12 58.76724 -170.77988 38165 ft 453 kts 271°
2026-05-05 15:12 58.76464 -170.90175 38167 ft 453 kts 271°
2026-05-05 15:13 58.76195 -171.02263 38170 ft 453 kts 271°
2026-05-05 15:13 58.75917 -171.14246 38170 ft 452 kts 271°
2026-05-05 15:14 58.75624 -171.26346 38172 ft 451 kts 271°
2026-05-05 15:14 58.75314 -171.38347 38168 ft 451 kts 271°
2026-05-05 15:15 58.74985 -171.50348 38171 ft 451 kts 271°
2026-05-05 15:15 58.74646 -171.62378 38171 ft 452 kts 271°
2026-05-05 15:16 58.74296 -171.74419 38171 ft 453 kts 270°
2026-05-05 15:16 58.73933 -171.86496 38172 ft 452 kts 270°
2026-05-05 15:17 58.73562 -171.98492 38172 ft 452 kts 270°
2026-05-05 15:17 58.73180 -172.10510 38170 ft 451 kts 270°
2026-05-05 15:18 58.72785 -172.22565 38170 ft 451 kts 270°
2026-05-05 15:18 58.72384 -172.34468 38171 ft 450 kts 270°
2026-05-05 15:19 58.71969 -172.46448 38177 ft 450 kts 270°
2026-05-05 15:19 58.71543 -172.58398 38178 ft 450 kts 270°
2026-05-05 15:20 58.71106 -172.70369 38176 ft 450 kts 269°
2026-05-05 15:20 58.70658 -172.82341 38177 ft 451 kts 269°
2026-05-05 15:21 58.70201 -172.94278 38186 ft 451 kts 269°
2026-05-05 15:21 58.69729 -173.06293 38187 ft 450 kts 269°
2026-05-05 15:22 58.69249 -173.18211 38183 ft 449 kts 269°
2026-05-05 15:22 58.68759 -173.30103 38147 ft 449 kts 269°
2026-05-05 15:23 58.68259 -173.41983 38184 ft 449 kts 269°
2026-05-05 15:23 58.67750 -173.53850 38190 ft 448 kts 269°
2026-05-05 15:24 58.67230 -173.65715 38174 ft 448 kts 268°
2026-05-05 15:24 58.66696 -173.77608 38188 ft 448 kts 268°
2026-05-05 15:25 58.66125 -173.89442 38193 ft 448 kts 266°
2026-05-05 15:25 58.65263 -174.01218 38192 ft 448 kts 265°
2026-05-05 15:26 58.64367 -174.13037 38201 ft 449 kts 265°
2026-05-05 15:26 58.63462 -174.24861 38196 ft 449 kts 265°
2026-05-05 15:27 58.62551 -174.36638 38203 ft 448 kts 265°
2026-05-05 15:27 58.61627 -174.48412 38199 ft 448 kts 265°
2026-05-05 15:28 58.60869 -174.60231 38198 ft 444 kts 272°
2026-05-05 15:28 58.60902 -174.72035 38203 ft 444 kts 271°
2026-05-05 15:29 58.60432 -174.83800 38213 ft 447 kts 266°
2026-05-05 15:29 58.59492 -174.95578 38205 ft 447 kts 265°
2026-05-05 15:30 58.58527 -175.07281 38206 ft 446 kts 264°
2026-05-05 15:30 58.57547 -175.18977 38202 ft 447 kts 264°
2026-05-05 15:31 58.56556 -175.30672 38203 ft 447 kts 264°
2026-05-05 15:31 58.55551 -175.42360 38198 ft 447 kts 264°
2026-05-05 15:32 58.54541 -175.53987 38200 ft 447 kts 264°
2026-05-05 15:32 58.53513 -175.65686 38198 ft 447 kts 264°
2026-05-05 15:33 58.52478 -175.77338 38201 ft 447 kts 263°
2026-05-05 15:33 58.51427 -175.89047 38206 ft 447 kts 264°
2026-05-05 15:34 58.50363 -176.00775 38212 ft 447 kts 263°
2026-05-05 15:34 58.49299 -176.12381 38213 ft 447 kts 263°
2026-05-05 15:35 58.48225 -176.23981 38211 ft 447 kts 263°
2026-05-05 15:35 58.47135 -176.35626 38206 ft 447 kts 263°
2026-05-05 15:36 58.46035 -176.47250 38206 ft 447 kts 263°
2026-05-05 15:36 58.44928 -176.58858 38209 ft 446 kts 263°
2026-05-05 15:37 58.43811 -176.70450 38208 ft 447 kts 263°
2026-05-05 15:37 58.42679 -176.82080 38207 ft 447 kts 263°
2026-05-05 15:38 58.41538 -176.93675 38204 ft 447 kts 262°
2026-05-05 15:38 58.40309 -177.05322 38209 ft 448 kts 259°
2026-05-05 15:39 58.38372 -177.16551 38209 ft 452 kts 251°
2026-05-05 15:39 58.35744 -177.27434 38209 ft 454 kts 249°
2026-05-05 15:40 58.33050 -177.38234 38209 ft 453 kts 249°
2026-05-05 15:40 58.30345 -177.49039 38212 ft 452 kts 249°
2026-05-05 15:41 58.27654 -177.59752 38235 ft 451 kts 249°
2026-05-05 15:41 58.24958 -177.70432 38222 ft 451 kts 248°
2026-05-05 15:42 58.22244 -177.81137 38219 ft 451 kts 248°
2026-05-05 15:42 58.19527 -177.91801 38218 ft 450 kts 248°
2026-05-05 15:43 58.16819 -178.02383 38216 ft 450 kts 248°
2026-05-05 15:43 58.14087 -178.13014 38213 ft 449 kts 248°
2026-05-05 15:44 58.11360 -178.23567 38213 ft 449 kts 248°
2026-05-05 15:44 58.08615 -178.34134 38211 ft 449 kts 248°
2026-05-05 15:45 58.05866 -178.44676 38211 ft 449 kts 248°
2026-05-05 15:45 58.03107 -178.55202 38215 ft 449 kts 248°
2026-05-05 15:46 58.00348 -178.65678 38214 ft 448 kts 247°
2026-05-05 15:46 57.97568 -178.76189 38214 ft 448 kts 247°
2026-05-05 15:47 57.94791 -178.86639 38213 ft 448 kts 247°
2026-05-05 15:47 57.92007 -178.97072 38213 ft 448 kts 247°
2026-05-05 15:48 57.89204 -179.07521 38215 ft 448 kts 247°
2026-05-05 15:48 57.86403 -179.17912 38214 ft 447 kts 247°
2026-05-05 15:49 57.83605 -179.28245 38215 ft 447 kts 247°
2026-05-05 15:49 57.80783 -179.38620 38184 ft 448 kts 247°
2026-05-05 15:50 57.77956 -179.48965 38210 ft 447 kts 247°
2026-05-05 15:50 57.75135 -179.59253 38214 ft 447 kts 246°
2026-05-05 15:51 57.72293 -179.69563 38217 ft 446 kts 246°
2026-05-05 15:51 57.69455 -179.79811 38218 ft 445 kts 246°
2026-05-05 15:52 57.66605 -179.90059 38216 ft 445 kts 246°
2026-05-05 15:52 57.63750 179.99728 38218 ft 445 kts 247°
2026-05-05 15:53 57.60904 179.89587 38215 ft 444 kts 247°
2026-05-05 15:53 57.58045 179.79442 38215 ft 443 kts 247°
2026-05-05 15:54 57.55165 179.69272 38210 ft 442 kts 247°
2026-05-05 15:54 57.52311 179.59229 38213 ft 441 kts 246°
2026-05-05 15:55 57.49442 179.49187 38208 ft 440 kts 247°
2026-05-05 15:55 57.46569 179.39174 38203 ft 439 kts 247°
2026-05-05 15:56 57.43692 179.29189 38204 ft 440 kts 246°
2026-05-05 15:56 57.40812 179.19231 38204 ft 438 kts 246°
2026-05-05 15:57 57.37928 179.09305 38202 ft 437 kts 246°
2026-05-05 15:57 57.35042 178.99419 38210 ft 437 kts 246°
2026-05-05 15:58 57.32168 178.89609 38201 ft 436 kts 246°
2026-05-05 15:58 57.29279 178.79791 38206 ft 435 kts 246°
2026-05-05 15:59 57.26391 178.70020 38211 ft 435 kts 246°
2026-05-05 15:59 57.23487 178.60231 38198 ft 434 kts 246°
2026-05-05 16:00 57.20586 178.50497 38202 ft 434 kts 246°
2026-05-05 16:00 57.17685 178.40807 38193 ft 433 kts 246°
2026-05-05 16:01 57.14791 178.31172 38210 ft 433 kts 245°
2026-05-05 16:01 57.11868 178.21486 38201 ft 431 kts 245°
2026-05-05 16:02 57.08978 178.11945 38197 ft 430 kts 245°
2026-05-05 16:02 57.06073 178.02397 38196 ft 431 kts 245°
2026-05-05 16:03 57.03141 177.92792 38177 ft 431 kts 244°
2026-05-05 16:03 57.00233 177.83308 38175 ft 430 kts 244°
2026-05-05 16:04 56.97297 177.73772 38173 ft 430 kts 244°
2026-05-05 16:04 56.94375 177.64319 38168 ft 429 kts 244°
2026-05-05 16:05 56.91431 177.54825 38169 ft 428 kts 244°
2026-05-05 16:05 56.88500 177.45415 38165 ft 428 kts 244°
2026-05-05 16:06 56.85563 177.36032 38164 ft 428 kts 244°
2026-05-05 16:06 56.82592 177.26611 38164 ft 428 kts 243°
2026-05-05 16:07 56.79627 177.17285 38159 ft 429 kts 243°
2026-05-05 16:07 56.76653 177.07948 38156 ft 428 kts 243°
2026-05-05 16:08 56.73664 176.98599 38155 ft 427 kts 243°
2026-05-05 16:08 56.70673 176.89279 38154 ft 427 kts 243°
2026-05-05 16:09 56.67707 176.80070 38145 ft 425 kts 243°
2026-05-05 16:09 56.64714 176.70813 38139 ft 426 kts 243°
2026-05-05 16:10 56.61724 176.61607 38139 ft 426 kts 243°
2026-05-05 16:10 56.58702 176.52328 38132 ft 425 kts 243°
2026-05-05 16:11 56.55715 176.43195 38130 ft 424 kts 242°
2026-05-05 16:12 56.49694 176.24893 38121 ft 425 kts 241°
2026-05-05 16:13 56.42144 176.02135 38113 ft 423 kts 241°
2026-05-05 16:13 56.39119 175.93080 38107 ft 423 kts 241°
2026-05-05 16:14 56.33042 175.74986 38099 ft 423 kts 241°
2026-05-05 16:15 56.26951 175.56990 38097 ft 423 kts 240°
2026-05-05 16:16 56.20866 175.39143 38084 ft 421 kts 240°
2026-05-05 16:17 56.16257 175.25716 38085 ft 421 kts 240°
2026-05-05 16:18 56.11670 175.12422 38078 ft 421 kts 239°
2026-05-05 16:19 56.07046 174.99092 38062 ft 422 kts 239°
2026-05-05 16:19 56.02417 174.85826 38057 ft 422 kts 239°
2026-05-05 16:20 55.96225 174.68190 38044 ft 420 kts 239°
2026-05-05 16:22 55.88469 174.46272 38032 ft 418 kts 238°
2026-05-05 16:23 55.82277 174.28932 38029 ft 418 kts 237°
2026-05-05 16:23 55.77611 174.15927 38014 ft 417 kts 237°
2026-05-05 16:24 55.74497 174.07295 38010 ft 416 kts 237°
2026-05-05 16:25 55.69831 173.94418 37999 ft 417 kts 237°
2026-05-05 16:25 55.65136 173.81523 37992 ft 417 kts 237°
2026-05-05 16:26 55.58844 173.64360 37975 ft 417 kts 237°
2026-05-05 16:27 55.55700 173.55821 37973 ft 416 kts 237°
2026-05-05 16:27 55.52552 173.47305 37965 ft 417 kts 237°
2026-05-05 16:28 55.49399 173.38802 37963 ft 416 kts 236°
2026-05-05 16:28 55.46233 173.30299 37955 ft 416 kts 235°
2026-05-05 16:29 55.43057 173.21794 37949 ft 416 kts 236°
2026-05-05 16:29 55.39891 173.13344 37943 ft 416 kts 235°
2026-05-05 16:30 55.36708 173.04883 37938 ft 416 kts 235°
2026-05-05 16:30 55.33521 172.96442 37933 ft 415 kts 235°
2026-05-05 16:31 55.30335 172.88028 37917 ft 415 kts 235°
2026-05-05 16:31 55.27143 172.79625 37914 ft 416 kts 235°
2026-05-05 16:32 55.23953 172.71257 37911 ft 416 kts 235°
2026-05-05 16:32 55.20726 172.62817 37909 ft 417 kts 235°
2026-05-05 16:33 55.17522 172.54472 37907 ft 417 kts 235°
2026-05-05 16:33 55.14292 172.46086 37900 ft 417 kts 235°
2026-05-05 16:34 55.11067 172.37738 37898 ft 417 kts 234°
2026-05-05 16:34 55.07841 172.29416 37882 ft 416 kts 234°
2026-05-05 16:35 55.04608 172.21101 37883 ft 416 kts 234°
2026-05-05 16:35 55.01360 172.12776 37873 ft 417 kts 234°
2026-05-05 16:36 54.98119 172.04495 37864 ft 416 kts 233°
2026-05-05 16:36 54.94805 171.96245 37861 ft 415 kts 231°
2026-05-05 16:37 54.91204 171.88501 37837 ft 415 kts 229°
2026-05-05 16:37 54.87545 171.80737 37843 ft 416 kts 229°
2026-05-05 16:38 54.83885 171.73003 37829 ft 417 kts 229°
2026-05-05 16:38 54.80212 171.65266 37818 ft 418 kts 229°
2026-05-05 16:39 54.76518 171.57523 37829 ft 418 kts 229°
2026-05-05 16:39 54.72815 171.49783 37817 ft 418 kts 229°
2026-05-05 16:40 54.69127 171.42099 37810 ft 419 kts 229°
2026-05-05 16:40 54.65418 171.34398 37787 ft 419 kts 228°
2026-05-05 16:41 54.61690 171.26680 37793 ft 420 kts 228°
2026-05-05 16:41 54.57968 171.19002 37772 ft 421 kts 228°
2026-05-05 16:42 54.54210 171.11273 37765 ft 421 kts 228°
2026-05-05 16:42 54.50470 171.03603 37773 ft 421 kts 228°
2026-05-05 16:43 54.46708 170.95912 37764 ft 422 kts 228°
2026-05-05 16:43 54.42936 170.88222 37743 ft 422 kts 227°
2026-05-05 16:44 54.39155 170.80545 37749 ft 422 kts 228°
2026-05-05 16:44 54.35393 170.72928 37736 ft 423 kts 228°
2026-05-05 16:45 54.31594 170.65256 37737 ft 423 kts 228°
2026-05-05 16:45 54.27798 170.57617 37720 ft 423 kts 228°
2026-05-05 16:46 54.23993 170.49983 37723 ft 424 kts 228°
2026-05-05 16:46 54.20178 170.42354 37706 ft 424 kts 228°
2026-05-05 16:47 54.16375 170.34772 37749 ft 424 kts 227°
2026-05-05 16:47 54.12545 170.27159 37728 ft 424 kts 227°
2026-05-05 16:48 54.08709 170.19557 37682 ft 425 kts 227°
2026-05-05 16:48 54.04846 170.11925 37652 ft 425 kts 227°
2026-05-05 16:49 54.01007 170.04364 37658 ft 426 kts 227°
2026-05-05 16:49 53.97120 169.96732 37661 ft 426 kts 227°
2026-05-05 16:50 53.93235 169.89128 37659 ft 426 kts 227°
2026-05-05 16:50 53.89365 169.81576 37637 ft 426 kts 227°
2026-05-05 16:51 53.85490 169.74036 37647 ft 425 kts 227°
2026-05-05 16:51 53.81624 169.66538 37630 ft 425 kts 227°
2026-05-05 16:52 53.77752 169.59045 37639 ft 426 kts 227°
2026-05-05 16:52 53.73840 169.51497 37616 ft 425 kts 227°
2026-05-05 16:53 53.69964 169.44046 37624 ft 425 kts 227°
2026-05-05 16:53 53.66101 169.36456 37612 ft 427 kts 230°
2026-05-05 16:54 53.62732 169.28261 37599 ft 429 kts 236°
2026-05-05 16:54 53.59846 169.19476 37604 ft 430 kts 238°
2026-05-05 16:55 53.57016 169.10663 37598 ft 431 kts 238°
2026-05-05 16:55 53.54181 169.01854 37584 ft 430 kts 238°
2026-05-05 16:56 53.51329 168.93016 37573 ft 431 kts 238°
2026-05-05 16:56 53.48486 168.84235 37578 ft 431 kts 238°
2026-05-05 16:57 53.45620 168.75417 37561 ft 431 kts 238°
2026-05-05 16:57 53.42753 168.66620 37559 ft 432 kts 238°
2026-05-05 16:58 53.39876 168.57822 37540 ft 432 kts 238°
2026-05-05 16:58 53.36988 168.49023 37534 ft 431 kts 238°
2026-05-05 16:59 53.34112 168.40291 37525 ft 431 kts 238°
2026-05-05 16:59 53.31203 168.31509 37524 ft 432 kts 237°
2026-05-05 17:00 53.28288 168.22786 37517 ft 431 kts 237°
2026-05-05 17:00 53.25364 168.14056 37520 ft 432 kts 237°
2026-05-05 17:01 53.22438 168.05347 37509 ft 431 kts 237°
2026-05-05 17:01 53.19513 167.96664 37511 ft 431 kts 237°
2026-05-05 17:02 53.16571 167.87961 37502 ft 431 kts 238°
2026-05-05 17:02 53.13627 167.79280 37488 ft 433 kts 237°
2026-05-05 17:03 53.10674 167.70609 37494 ft 432 kts 237°
2026-05-05 17:03 53.07697 167.61891 37476 ft 432 kts 237°
2026-05-05 17:04 53.04755 167.53308 37481 ft 432 kts 238°
2026-05-05 17:04 53.01778 167.44655 37462 ft 432 kts 237°
2026-05-05 17:05 52.98804 167.36038 37457 ft 432 kts 238°
2026-05-05 17:05 52.95815 167.27408 37454 ft 432 kts 237°
2026-05-05 17:06 52.92831 167.18819 37452 ft 433 kts 237°
2026-05-05 17:06 52.89810 167.10158 37446 ft 434 kts 237°
2026-05-05 17:07 52.86797 167.01550 37449 ft 435 kts 237°
2026-05-05 17:07 52.83756 166.92896 37446 ft 436 kts 237°
2026-05-05 17:08 52.80713 166.84259 37453 ft 436 kts 237°
2026-05-05 17:08 52.77683 166.75688 37443 ft 436 kts 237°
2026-05-05 17:09 52.74616 166.67046 37441 ft 436 kts 237°
2026-05-05 17:09 52.71562 166.58472 37440 ft 436 kts 237°
2026-05-05 17:10 52.68495 166.49887 37428 ft 436 kts 237°
2026-05-05 17:10 52.65408 166.41273 37428 ft 437 kts 237°
2026-05-05 17:11 52.62325 166.32710 37423 ft 437 kts 236°
2026-05-05 17:11 52.59226 166.24127 37420 ft 437 kts 236°
2026-05-05 17:12 52.56131 166.15581 37414 ft 438 kts 236°
2026-05-05 17:12 52.53005 166.06979 37419 ft 438 kts 236°
2026-05-05 17:13 52.49893 165.98445 37417 ft 439 kts 237°
2026-05-05 17:13 52.46756 165.89874 37411 ft 439 kts 237°
2026-05-05 17:14 52.43602 165.81280 37409 ft 439 kts 237°
2026-05-05 17:14 52.40470 165.72780 37413 ft 439 kts 236°
2026-05-05 17:15 52.37305 165.64218 37405 ft 439 kts 237°
2026-05-05 17:15 52.34163 165.55749 37394 ft 439 kts 237°
2026-05-05 17:16 52.30992 165.47227 37404 ft 439 kts 237°
2026-05-05 17:16 52.27802 165.38684 37399 ft 439 kts 237°
2026-05-05 17:17 52.24628 165.30214 37396 ft 440 kts 236°
2026-05-05 17:17 52.21425 165.21695 37390 ft 441 kts 236°
2026-05-05 17:18 52.18221 165.13199 37384 ft 442 kts 236°
2026-05-05 17:18 52.15021 165.04742 37383 ft 442 kts 236°
2026-05-05 17:19 52.11793 164.96242 37375 ft 442 kts 236°
2026-05-05 17:19 52.08570 164.87784 37377 ft 442 kts 236°
2026-05-05 17:20 52.05317 164.79272 37371 ft 442 kts 236°
2026-05-05 17:20 52.02085 164.70845 37373 ft 442 kts 236°
2026-05-05 17:21 51.98824 164.62369 37379 ft 442 kts 236°
2026-05-05 17:22 51.93950 164.49750 37366 ft 443 kts 236°
2026-05-05 17:22 51.90679 164.41319 37363 ft 443 kts 236°
2026-05-05 17:23 51.87408 164.32915 37368 ft 443 kts 236°
2026-05-05 17:23 51.84115 164.24486 37374 ft 443 kts 236°
2026-05-05 17:24 51.80824 164.16084 37370 ft 443 kts 236°
2026-05-05 17:24 51.77542 164.07732 37365 ft 443 kts 236°
2026-05-05 17:25 51.74246 163.99368 37367 ft 442 kts 236°
2026-05-05 17:25 51.70944 163.91019 37362 ft 443 kts 236°
2026-05-05 17:26 51.67629 163.82655 37359 ft 443 kts 236°
2026-05-05 17:26 51.64323 163.74348 37362 ft 443 kts 236°
2026-05-05 17:27 51.60996 163.66026 37356 ft 443 kts 236°
2026-05-05 17:27 51.57672 163.57756 37354 ft 444 kts 236°
2026-05-05 17:28 51.54317 163.49425 37355 ft 444 kts 236°
2026-05-05 17:28 51.50978 163.41151 37354 ft 444 kts 236°
2026-05-05 17:29 51.47614 163.32843 37355 ft 444 kts 236°
2026-05-05 17:29 51.44256 163.24571 37352 ft 444 kts 236°
2026-05-05 17:30 51.40886 163.16293 37353 ft 445 kts 236°
2026-05-05 17:30 51.37502 163.08015 37366 ft 444 kts 236°
2026-05-05 17:31 51.34126 162.99776 37369 ft 444 kts 236°
2026-05-05 17:31 51.30738 162.91538 37369 ft 444 kts 236°
2026-05-05 17:32 51.27365 162.83359 37373 ft 444 kts 236°
2026-05-05 17:32 51.23981 162.75179 37363 ft 444 kts 236°
2026-05-05 17:33 51.20574 162.66969 37369 ft 444 kts 236°
2026-05-05 17:33 51.17179 162.58815 37369 ft 444 kts 236°
2026-05-05 17:34 51.13767 162.50647 37360 ft 445 kts 236°
2026-05-05 17:34 51.10357 162.42509 37355 ft 445 kts 236°
2026-05-05 17:35 51.06930 162.34360 37371 ft 445 kts 236°
2026-05-05 17:35 51.03503 162.26234 37369 ft 445 kts 236°
2026-05-05 17:36 51.00070 162.18114 37391 ft 444 kts 236°
2026-05-05 17:36 50.96624 162.09993 37393 ft 444 kts 236°
2026-05-05 17:37 50.93191 162.01926 37385 ft 443 kts 236°
2026-05-05 17:37 50.89757 161.93880 37376 ft 443 kts 236°
2026-05-05 17:38 50.86314 161.85838 37370 ft 443 kts 236°
2026-05-05 17:38 50.82864 161.77808 37382 ft 443 kts 236°
2026-05-05 17:39 50.79413 161.69797 37374 ft 444 kts 236°
2026-05-05 17:39 50.75941 161.61766 37389 ft 444 kts 236°
2026-05-05 17:40 50.72465 161.53748 37396 ft 444 kts 236°
2026-05-05 17:40 50.68995 161.45766 37394 ft 444 kts 236°
2026-05-05 17:41 50.65512 161.37784 37402 ft 444 kts 236°
2026-05-05 17:41 50.62001 161.29759 37404 ft 444 kts 235°
2026-05-05 17:42 50.58530 161.21849 37406 ft 444 kts 235°
2026-05-05 17:42 50.55217 161.14320 37405 ft 444 kts 235°
2026-05-05 17:43 50.51707 161.06367 37415 ft 443 kts 235°
2026-05-05 17:43 50.48206 160.98459 37424 ft 443 kts 235°
2026-05-05 17:44 50.44704 160.90572 37427 ft 443 kts 235°
2026-05-05 17:44 50.41177 160.82654 37426 ft 443 kts 235°
2026-05-05 17:45 50.37671 160.74803 37433 ft 443 kts 236°
2026-05-05 17:45 50.34150 160.66945 37443 ft 443 kts 236°
2026-05-05 17:46 50.30618 160.59079 37445 ft 443 kts 236°
2026-05-05 17:46 50.27085 160.51230 37444 ft 443 kts 236°
2026-05-05 17:47 50.23543 160.43388 37450 ft 443 kts 236°
2026-05-05 17:47 50.20003 160.35591 37445 ft 444 kts 235°
2026-05-05 17:48 50.16415 160.27765 37452 ft 443 kts 234°
2026-05-05 17:48 50.12855 160.20010 37456 ft 444 kts 234°
2026-05-05 17:49 50.09262 160.12201 37462 ft 444 kts 234°
2026-05-05 17:49 50.05677 160.04428 37462 ft 445 kts 234°
2026-05-05 17:50 50.02079 159.96646 37472 ft 444 kts 234°
2026-05-05 17:50 49.98492 159.88913 37490 ft 443 kts 235°
2026-05-05 17:51 49.94896 159.81183 37501 ft 443 kts 235°
2026-05-05 17:51 49.91288 159.73448 37496 ft 443 kts 235°
2026-05-05 17:52 49.87679 159.65732 37502 ft 443 kts 235°
2026-05-05 17:52 49.84089 159.58077 37510 ft 443 kts 235°
2026-05-05 17:53 49.80467 159.50372 37513 ft 443 kts 235°
2026-05-05 17:53 49.76853 159.42705 37511 ft 444 kts 235°
2026-05-05 17:54 49.73215 159.35019 37513 ft 443 kts 235°
2026-05-05 17:54 49.69555 159.27449 37521 ft 443 kts 233°
2026-05-05 17:55 49.65828 159.19882 37527 ft 443 kts 233°
2026-05-05 17:55 49.62123 159.12360 37539 ft 443 kts 234°
2026-05-05 17:56 49.58408 159.04831 37535 ft 444 kts 234°
2026-05-05 17:56 49.54685 158.97301 37542 ft 444 kts 234°
2026-05-05 17:57 49.50941 158.89743 37551 ft 444 kts 234°
2026-05-05 17:57 49.47220 158.82256 37555 ft 442 kts 234°
2026-05-05 17:58 49.43492 158.74774 37553 ft 442 kts 234°
2026-05-05 17:58 49.39756 158.67299 37560 ft 442 kts 234°
2026-05-05 17:59 49.36046 158.59894 37564 ft 442 kts 234°
2026-05-05 17:59 49.32304 158.52447 37567 ft 443 kts 234°
2026-05-05 18:00 49.28542 158.44983 37572 ft 443 kts 234°
2026-05-05 18:00 49.24791 158.37561 37573 ft 444 kts 234°
2026-05-05 18:01 49.21002 158.30084 37585 ft 445 kts 233°
2026-05-05 18:01 49.17207 158.22617 37601 ft 446 kts 233°
2026-05-05 18:02 49.13418 158.15181 37612 ft 446 kts 233°
2026-05-05 18:02 49.09629 158.07767 37624 ft 445 kts 233°
2026-05-05 18:03 49.05839 158.00372 37625 ft 444 kts 233°
2026-05-05 18:03 49.02038 157.92972 37631 ft 444 kts 233°
2026-05-05 18:04 48.98248 157.85620 37636 ft 444 kts 234°
2026-05-05 18:04 48.94447 157.78264 37643 ft 443 kts 234°
2026-05-05 18:05 48.90644 157.70924 37649 ft 442 kts 234°
2026-05-05 18:05 48.86862 157.63644 37652 ft 443 kts 234°
2026-05-05 18:06 48.83050 157.56326 37658 ft 442 kts 234°
2026-05-05 18:06 48.79238 157.49033 37659 ft 443 kts 234°
2026-05-05 18:07 48.75419 157.41740 37656 ft 443 kts 234°
2026-05-05 18:07 48.71602 157.34474 37660 ft 442 kts 234°
2026-05-05 18:08 48.67788 157.27232 37676 ft 441 kts 234°
2026-05-05 18:08 48.64000 157.20056 37676 ft 441 kts 234°
2026-05-05 18:09 48.60173 157.12826 37686 ft 441 kts 234°
2026-05-05 18:09 48.56358 157.05646 37693 ft 441 kts 234°
2026-05-05 18:10 48.52532 156.98459 37692 ft 441 kts 234°
2026-05-05 18:10 48.48698 156.91275 37699 ft 440 kts 234°
2026-05-05 18:11 48.44890 156.84160 37697 ft 440 kts 234°
2026-05-05 18:11 48.41053 156.77011 37697 ft 439 kts 234°
2026-05-05 18:12 48.37228 156.69899 37692 ft 439 kts 234°
2026-05-05 18:12 48.33404 156.62813 37696 ft 438 kts 234°
2026-05-05 18:13 48.29579 156.55740 37703 ft 438 kts 234°
2026-05-05 18:13 48.25747 156.48679 37713 ft 438 kts 234°
2026-05-05 18:14 48.21924 156.41646 37715 ft 437 kts 234°
2026-05-05 18:14 48.18113 156.34656 37721 ft 437 kts 234°
2026-05-05 18:15 48.14245 156.27582 37723 ft 436 kts 234°
2026-05-05 18:15 48.10418 156.20595 37727 ft 438 kts 234°
2026-05-05 18:16 48.06568 156.13590 37737 ft 438 kts 234°
2026-05-05 18:16 48.02839 156.06819 37737 ft 439 kts 234°
2026-05-05 18:17 47.98987 155.99840 37738 ft 439 kts 234°
2026-05-05 18:17 47.95101 155.92822 37956 ft 440 kts 234°
2026-05-05 18:17 47.93144 155.89296 38284 ft 437 kts 234°
2026-05-05 18:18 47.91229 155.85854 38600 ft 434 kts 234°
2026-05-05 18:18 47.89304 155.82390 38823 ft 433 kts 234°
2026-05-05 18:18 47.87382 155.78940 39010 ft 433 kts 234°
2026-05-05 18:18 47.85475 155.75519 39202 ft 433 kts 234°
2026-05-05 18:19 47.83551 155.72076 39394 ft 432 kts 234°
2026-05-05 18:19 47.81620 155.68620 39574 ft 432 kts 234°
2026-05-05 18:19 47.79709 155.65207 39732 ft 432 kts 234°
2026-05-05 18:20 47.75882 155.58382 39760 ft 433 kts 234°
2026-05-05 18:20 47.72036 155.51543 39747 ft 432 kts 234°
2026-05-05 18:21 47.68177 155.44694 39753 ft 431 kts 234°
2026-05-05 18:21 47.64336 155.37901 39756 ft 431 kts 234°
2026-05-05 18:22 47.60475 155.31087 39767 ft 431 kts 233°
2026-05-05 18:22 47.56638 155.24333 39760 ft 432 kts 233°
2026-05-05 18:23 47.52755 155.17517 39768 ft 432 kts 233°
2026-05-05 18:23 47.48915 155.10788 39768 ft 431 kts 233°
2026-05-05 18:24 47.45055 155.04042 39777 ft 429 kts 233°
2026-05-05 18:24 47.41202 154.97327 39762 ft 430 kts 234°
2026-05-05 18:25 47.37345 154.90619 39762 ft 429 kts 233°
2026-05-05 18:25 47.33502 154.83952 39771 ft 429 kts 234°
2026-05-05 18:26 47.29630 154.77252 39764 ft 429 kts 234°
2026-05-05 18:26 47.25777 154.70602 39767 ft 429 kts 234°
2026-05-05 18:27 47.21905 154.63933 39768 ft 429 kts 234°
2026-05-05 18:27 47.18044 154.57303 39777 ft 427 kts 234°
2026-05-05 18:28 47.12229 154.47347 39775 ft 427 kts 234°
2026-05-05 18:28 47.08363 154.40755 39792 ft 427 kts 234°
2026-05-05 18:29 47.04517 154.34198 39774 ft 426 kts 233°
2026-05-05 18:29 47.00618 154.27576 39773 ft 427 kts 233°
2026-05-05 18:30 46.96751 154.21019 39786 ft 426 kts 234°
2026-05-05 18:30 46.92886 154.14491 39789 ft 425 kts 233°
2026-05-05 18:31 46.89021 154.07970 39790 ft 425 kts 234°
2026-05-05 18:31 46.85161 154.01474 39789 ft 425 kts 234°
2026-05-05 18:32 46.81272 153.94940 39798 ft 425 kts 234°
2026-05-05 18:32 46.77383 153.88431 39787 ft 425 kts 234°
2026-05-05 18:33 46.73505 153.81953 39785 ft 424 kts 233°
2026-05-05 18:33 46.69637 153.75505 39792 ft 423 kts 234°
2026-05-05 18:34 46.65756 153.69052 39796 ft 424 kts 234°
2026-05-05 18:34 46.61862 153.62595 39799 ft 424 kts 234°
2026-05-05 18:35 46.57980 153.56169 39804 ft 425 kts 234°
2026-05-05 18:35 46.54101 153.49760 39809 ft 424 kts 234°
2026-05-05 18:36 46.50204 153.43347 39811 ft 423 kts 234°
2026-05-05 18:36 46.46303 153.36935 39810 ft 424 kts 234°
2026-05-05 18:37 46.42432 153.30588 39824 ft 422 kts 234°
2026-05-05 18:37 46.38538 153.24214 39809 ft 423 kts 233°
2026-05-05 18:38 46.34646 153.17859 39812 ft 423 kts 233°
2026-05-05 18:38 46.30755 153.11520 39809 ft 423 kts 233°
2026-05-05 18:39 46.26843 153.05156 39814 ft 422 kts 234°
2026-05-05 18:39 46.22965 152.98871 39814 ft 422 kts 233°
2026-05-05 18:40 46.19010 152.92561 39816 ft 423 kts 233°
2026-05-05 18:40 46.15067 152.86293 39810 ft 422 kts 234°
2026-05-05 18:41 46.11151 152.80070 39818 ft 420 kts 233°
2026-05-05 18:41 46.07217 152.73830 39822 ft 420 kts 234°
2026-05-05 18:42 46.03307 152.67641 39825 ft 419 kts 234°
2026-05-05 18:42 45.99373 152.61424 39823 ft 419 kts 234°
2026-05-05 18:43 45.95456 152.55246 39823 ft 419 kts 234°
2026-05-05 18:43 45.91544 152.49092 39831 ft 418 kts 233°
2026-05-05 18:44 45.87599 152.42900 39823 ft 419 kts 234°
2026-05-05 18:44 45.83664 152.36737 39825 ft 419 kts 234°
2026-05-05 18:45 45.79731 152.30594 39832 ft 419 kts 233°
2026-05-05 18:45 45.75784 152.24440 39838 ft 420 kts 233°
2026-05-05 18:46 45.71840 152.18308 39825 ft 420 kts 233°
2026-05-05 18:46 45.67886 152.12169 39837 ft 420 kts 233°
2026-05-05 18:47 45.63932 152.06044 39835 ft 418 kts 233°
2026-05-05 18:47 45.59954 151.99901 39840 ft 419 kts 233°
2026-05-05 18:48 45.56020 151.93835 39839 ft 419 kts 233°
2026-05-05 18:48 45.52053 151.87735 39838 ft 419 kts 233°
2026-05-05 18:49 45.48082 151.81639 39839 ft 418 kts 233°
2026-05-05 18:49 45.44127 151.75583 39839 ft 420 kts 233°
2026-05-05 18:50 45.40148 151.69502 39851 ft 419 kts 233°
2026-05-05 18:50 45.36172 151.63444 39831 ft 419 kts 234°
2026-05-05 18:51 45.32201 151.57402 39841 ft 418 kts 234°
2026-05-05 18:51 45.28219 151.51360 39850 ft 419 kts 233°
2026-05-05 18:52 45.24223 151.45306 39844 ft 419 kts 233°
2026-05-05 18:52 45.20246 151.39296 39846 ft 418 kts 234°
2026-05-05 18:53 45.16296 151.33339 39849 ft 419 kts 233°
2026-05-05 18:53 45.12299 151.27324 39857 ft 419 kts 233°
2026-05-05 18:54 45.08315 151.21344 39866 ft 419 kts 233°
2026-05-05 18:54 45.04301 151.15332 39874 ft 418 kts 233°
2026-05-05 18:55 45.00322 151.09383 39873 ft 418 kts 233°
2026-05-05 18:55 44.96330 151.03427 39885 ft 418 kts 233°
2026-05-05 18:56 44.92318 150.97458 39875 ft 417 kts 233°
2026-05-05 18:56 44.88325 150.91527 39880 ft 418 kts 233°
2026-05-05 18:57 44.84330 150.85606 39871 ft 418 kts 233°
2026-05-05 18:57 44.80316 150.79671 39883 ft 418 kts 233°
2026-05-05 18:58 44.76315 150.73767 39889 ft 418 kts 233°
2026-05-05 18:58 44.72298 150.67853 39893 ft 418 kts 233°
2026-05-05 18:59 44.68276 150.61943 39893 ft 418 kts 233°
2026-05-05 18:59 44.64273 150.56074 39895 ft 418 kts 233°
2026-05-05 19:00 44.60243 150.50177 39893 ft 417 kts 233°
2026-05-05 19:00 44.56235 150.44328 39903 ft 417 kts 233°
2026-05-05 19:01 44.52216 150.38475 39906 ft 417 kts 233°
2026-05-05 19:01 44.48158 150.32579 39911 ft 418 kts 232°
2026-05-05 19:02 44.44136 150.26743 39909 ft 418 kts 232°
2026-05-05 19:02 44.40098 150.20895 39910 ft 417 kts 232°
2026-05-05 19:03 44.36053 150.15054 39923 ft 417 kts 232°
2026-05-05 19:03 44.32031 150.09259 39919 ft 417 kts 232°
2026-05-05 19:04 44.27987 150.03441 39921 ft 417 kts 232°
2026-05-05 19:04 44.23949 149.97647 39923 ft 417 kts 232°
2026-05-05 19:05 44.19919 149.91875 39929 ft 418 kts 232°
2026-05-05 19:05 44.15868 149.86084 39931 ft 418 kts 232°
2026-05-05 19:06 44.11845 149.80344 39927 ft 416 kts 232°
2026-05-05 19:06 44.07801 149.74588 39933 ft 416 kts 232°
2026-05-05 19:07 44.03755 149.68843 39934 ft 417 kts 232°
2026-05-05 19:07 43.99708 149.63106 39935 ft 417 kts 232°
2026-05-05 19:08 43.95649 149.57364 39934 ft 417 kts 232°
2026-05-05 19:08 43.91569 149.51604 39946 ft 417 kts 232°
2026-05-05 19:09 43.87529 149.45914 39957 ft 416 kts 232°
2026-05-05 19:09 43.83463 149.40195 39961 ft 416 kts 232°
2026-05-05 19:10 43.79414 149.34518 39961 ft 415 kts 231°
2026-05-05 19:10 43.75364 149.28851 39973 ft 416 kts 232°
2026-05-05 19:11 43.71276 149.23138 39983 ft 416 kts 232°
2026-05-05 19:11 43.67212 149.17470 39976 ft 416 kts 232°
2026-05-05 19:12 43.63173 149.11848 39970 ft 415 kts 232°
2026-05-05 19:12 43.59091 149.06178 39969 ft 415 kts 231°
2026-05-05 19:13 43.55041 149.00569 39960 ft 415 kts 232°
2026-05-05 19:13 43.50971 148.94939 39982 ft 414 kts 232°
2026-05-05 19:14 43.46910 148.89336 39978 ft 413 kts 232°
2026-05-05 19:14 43.42840 148.83730 39978 ft 414 kts 232°
2026-05-05 19:15 43.38768 148.78134 39991 ft 414 kts 232°
2026-05-05 19:15 43.34698 148.72549 39988 ft 414 kts 232°
2026-05-05 19:16 43.30623 148.66969 39979 ft 414 kts 232°
2026-05-05 19:16 43.26565 148.61423 40004 ft 413 kts 232°
2026-05-05 19:17 43.22517 148.55905 40000 ft 413 kts 232°
2026-05-05 19:17 43.18423 148.50333 39994 ft 414 kts 232°
2026-05-05 19:18 43.14353 148.44803 40000 ft 414 kts 232°
2026-05-05 19:18 43.10291 148.39294 39996 ft 414 kts 232°
2026-05-05 19:19 43.06191 148.33751 40007 ft 414 kts 231°
2026-05-05 19:19 43.02090 148.28214 40002 ft 414 kts 231°
2026-05-05 19:20 42.98018 148.22726 39999 ft 415 kts 231°
2026-05-05 19:20 42.93917 148.17210 40002 ft 415 kts 231°
2026-05-05 19:21 42.89796 148.11675 39996 ft 415 kts 231°
2026-05-05 19:21 42.85702 148.06190 39992 ft 415 kts 231°
2026-05-05 19:22 42.81593 148.00697 40009 ft 416 kts 231°
2026-05-05 19:22 42.77462 147.95186 40011 ft 416 kts 231°
2026-05-05 19:23 42.73339 147.89694 40008 ft 416 kts 231°
2026-05-05 19:23 42.69214 147.84210 40017 ft 416 kts 231°
2026-05-05 19:24 42.65093 147.78743 40012 ft 416 kts 231°
2026-05-05 19:24 42.60964 147.73273 40022 ft 415 kts 231°
2026-05-05 19:25 42.56824 147.67801 40025 ft 414 kts 231°
2026-05-05 19:25 42.52707 147.62367 40020 ft 414 kts 231°
2026-05-05 19:26 42.48574 147.56921 40041 ft 415 kts 231°
2026-05-05 19:26 42.44442 147.51483 40033 ft 413 kts 231°
2026-05-05 19:27 42.40334 147.46097 40043 ft 414 kts 231°
2026-05-05 19:27 42.36183 147.40672 40044 ft 414 kts 231°
2026-05-05 19:28 42.32079 147.35313 40051 ft 413 kts 231°
2026-05-05 19:28 42.27929 147.29895 40050 ft 413 kts 230°
2026-05-05 19:29 42.23807 147.24518 40055 ft 412 kts 230°
2026-05-05 19:29 42.19706 147.19183 40066 ft 412 kts 230°
2026-05-05 19:30 42.15599 147.13847 40058 ft 410 kts 230°
2026-05-05 19:30 42.11488 147.08516 40072 ft 409 kts 230°
2026-05-05 19:31 42.07404 147.03230 40062 ft 409 kts 230°
2026-05-05 19:31 42.03308 146.97934 40071 ft 409 kts 230°
2026-05-05 19:32 41.99220 146.92656 40079 ft 408 kts 230°
2026-05-05 19:32 41.95211 146.87494 40074 ft 409 kts 230°
2026-05-05 19:33 41.91112 146.82231 40065 ft 409 kts 230°
2026-05-05 19:33 41.86991 146.76958 40070 ft 408 kts 230°
2026-05-05 19:34 41.82901 146.71722 40077 ft 408 kts 230°
2026-05-05 19:35 41.76738 146.63843 40115 ft 408 kts 230°
2026-05-05 19:35 41.72642 146.58620 40087 ft 408 kts 230°
2026-05-05 19:36 41.68548 146.53407 40108 ft 408 kts 230°
2026-05-05 19:36 41.64446 146.48190 40106 ft 408 kts 230°
2026-05-05 19:37 41.60326 146.42963 40116 ft 408 kts 230°
2026-05-05 19:37 41.56216 146.37752 40115 ft 409 kts 230°
2026-05-05 19:38 41.52092 146.32541 40128 ft 409 kts 229°
2026-05-05 19:38 41.47941 146.27303 40117 ft 410 kts 229°
2026-05-05 19:39 41.43826 146.22118 40124 ft 410 kts 229°
2026-05-05 19:39 41.39676 146.16902 40125 ft 411 kts 229°
2026-05-05 19:40 41.35521 146.11687 40119 ft 411 kts 229°
2026-05-05 19:40 41.31367 146.06485 40119 ft 411 kts 229°
2026-05-05 19:41 41.27205 146.01280 40136 ft 409 kts 229°
2026-05-05 19:41 41.23073 145.96121 40112 ft 409 kts 229°
2026-05-05 19:42 41.18923 145.90950 40127 ft 410 kts 229°
2026-05-05 19:42 41.14770 145.85786 40132 ft 411 kts 229°
2026-05-05 19:43 41.10605 145.80611 40130 ft 410 kts 229°
2026-05-05 19:43 41.06442 145.75456 40117 ft 410 kts 229°
2026-05-05 19:44 41.02262 145.70287 40131 ft 411 kts 229°
2026-05-05 19:44 40.98091 145.65137 40147 ft 411 kts 229°
2026-05-05 19:45 40.93929 145.60007 40143 ft 410 kts 229°
2026-05-05 19:45 40.89763 145.54884 40158 ft 408 kts 229°
2026-05-05 19:46 40.85619 145.49794 40152 ft 410 kts 229°
2026-05-05 19:46 40.81437 145.44665 40158 ft 408 kts 229°
2026-05-05 19:47 40.77278 145.39574 40156 ft 408 kts 229°
2026-05-05 19:47 40.73130 145.34509 40155 ft 408 kts 229°
2026-05-05 19:48 40.68971 145.29440 40156 ft 409 kts 229°
2026-05-05 19:48 40.64817 145.24381 40158 ft 408 kts 229°
2026-05-05 19:49 40.60662 145.19330 40159 ft 406 kts 229°
2026-05-05 19:49 40.56502 145.14281 40164 ft 406 kts 229°
2026-05-05 19:50 40.52376 145.09279 40160 ft 406 kts 229°
2026-05-05 19:50 40.48213 145.04239 40153 ft 405 kts 229°
2026-05-05 19:51 40.44089 144.99265 40164 ft 405 kts 229°
2026-05-05 19:51 40.39918 144.94251 40169 ft 405 kts 229°
2026-05-05 19:52 40.35773 144.89285 40175 ft 405 kts 229°
2026-05-05 19:52 40.31645 144.84335 40165 ft 404 kts 229°
2026-05-05 19:53 40.27484 144.79355 40173 ft 405 kts 229°
2026-05-05 19:53 40.23363 144.74423 40178 ft 403 kts 229°
2026-05-05 19:54 40.19208 144.69463 40173 ft 404 kts 229°
2026-05-05 19:54 40.15059 144.64522 40172 ft 404 kts 229°
2026-05-05 19:55 40.10924 144.59596 40170 ft 403 kts 229°
2026-05-05 19:55 40.06792 144.54688 40185 ft 403 kts 229°
2026-05-05 19:56 40.02659 144.49785 40180 ft 403 kts 229°
2026-05-05 19:56 39.98509 144.44875 40183 ft 401 kts 229°
2026-05-05 19:57 39.94377 144.39990 40166 ft 402 kts 229°
2026-05-05 19:57 39.90255 144.35124 40163 ft 401 kts 229°
2026-05-05 19:58 39.86106 144.30241 40179 ft 402 kts 228°
2026-05-05 19:58 39.81979 144.25388 40187 ft 401 kts 228°
2026-05-05 19:59 39.77828 144.20512 40186 ft 400 kts 228°
2026-05-05 19:59 39.73714 144.15695 40192 ft 399 kts 228°
2026-05-05 20:00 39.69603 144.10884 40197 ft 399 kts 229°
2026-05-05 20:00 39.65479 144.06067 40197 ft 399 kts 228°
2026-05-05 20:01 39.61357 144.01259 40197 ft 399 kts 229°
2026-05-05 20:01 39.57386 143.96634 40201 ft 398 kts 228°
2026-05-05 20:02 39.53256 143.91836 40201 ft 398 kts 229°
2026-05-05 20:02 39.49153 143.87073 40198 ft 397 kts 229°
2026-05-05 20:03 39.45042 143.82309 40204 ft 397 kts 228°
2026-05-05 20:03 39.40922 143.77542 40204 ft 397 kts 229°
2026-05-05 20:04 39.36808 143.72795 40207 ft 397 kts 229°
2026-05-05 20:04 39.32698 143.68054 40204 ft 396 kts 228°
2026-05-05 20:05 39.28605 143.63345 40204 ft 396 kts 229°
2026-05-05 20:05 39.24482 143.58606 40204 ft 396 kts 228°
2026-05-05 20:06 39.20395 143.53917 40200 ft 396 kts 229°
2026-05-05 20:06 39.16269 143.49188 40198 ft 396 kts 229°
2026-05-05 20:07 39.12191 143.44522 40200 ft 395 kts 229°
2026-05-05 20:07 39.08077 143.39822 40204 ft 394 kts 228°
2026-05-05 20:08 39.03996 143.35169 40196 ft 393 kts 229°
2026-05-05 20:08 38.99894 143.30493 40202 ft 393 kts 228°
2026-05-05 20:09 38.95817 143.25859 40198 ft 394 kts 228°
2026-05-05 20:09 38.91237 143.21878 40198 ft 409 kts 214°
2026-05-05 20:10 38.85688 143.19627 40206 ft 426 kts 201°
2026-05-05 20:10 38.79857 143.18292 40213 ft 425 kts 200°
2026-05-05 20:11 38.74035 143.17003 40214 ft 426 kts 200°
2026-05-05 20:11 38.68211 143.15712 40222 ft 426 kts 200°
2026-05-05 20:12 38.62380 143.14418 40222 ft 425 kts 200°
2026-05-05 20:12 38.56583 143.13132 40224 ft 423 kts 200°
2026-05-05 20:13 38.50792 143.11853 40233 ft 424 kts 201°
2026-05-05 20:13 38.45016 143.10577 40225 ft 422 kts 200°
2026-05-05 20:14 38.39218 143.09299 40234 ft 423 kts 201°
2026-05-05 20:14 38.33435 143.08028 40242 ft 422 kts 201°
2026-05-05 20:15 38.27685 143.06763 40242 ft 420 kts 200°
2026-05-05 20:15 38.21940 143.05502 40250 ft 418 kts 201°
2026-05-05 20:16 38.16190 143.04239 40246 ft 420 kts 201°
2026-05-05 20:16 38.10440 143.02983 40248 ft 419 kts 200°
2026-05-05 20:17 38.04721 143.01735 40255 ft 419 kts 201°
2026-05-05 20:17 37.98997 143.00482 40254 ft 418 kts 201°
2026-05-05 20:18 37.93276 142.99236 40264 ft 416 kts 201°
2026-05-05 20:18 37.87613 142.98004 40256 ft 415 kts 201°
2026-05-05 20:19 37.81892 142.96759 40253 ft 416 kts 201°
2026-05-05 20:19 37.76191 142.95523 40249 ft 416 kts 201°
2026-05-05 20:20 37.70510 142.94299 40254 ft 414 kts 201°
2026-05-05 20:20 37.64840 142.93071 40254 ft 415 kts 201°
2026-05-05 20:21 37.59163 142.91844 40245 ft 415 kts 202°
2026-05-05 20:21 37.53500 142.90628 40265 ft 415 kts 201°
2026-05-05 20:22 37.47803 142.89398 40256 ft 415 kts 201°
2026-05-05 20:22 37.42164 142.88188 40274 ft 414 kts 202°
2026-05-05 20:23 37.36482 142.86963 40272 ft 413 kts 202°
2026-05-05 20:23 37.30834 142.85753 40261 ft 415 kts 202°
2026-05-05 20:24 37.25172 142.84549 40268 ft 413 kts 202°
2026-05-05 20:24 37.19523 142.83345 40273 ft 412 kts 202°
2026-05-05 20:25 37.13949 142.81917 40282 ft 402 kts 208°
2026-05-05 20:25 37.08843 142.79417 40284 ft 386 kts 217°
2026-05-05 20:26 37.04201 142.76228 40299 ft 382 kts 219°
2026-05-05 20:26 36.99578 142.72984 40285 ft 383 kts 220°
2026-05-05 20:27 36.93094 142.68430 40277 ft 383 kts 219°
2026-05-05 20:27 36.83736 142.61861 40280 ft 384 kts 220°
2026-05-05 20:28 36.74466 142.55370 40278 ft 383 kts 220°
2026-05-05 20:28 36.64649 142.48505 40277 ft 381 kts 219°
2026-05-05 20:28 36.62356 142.46905 40028 ft 381 kts 220°
2026-05-05 20:29 36.60068 142.45314 39750 ft 377 kts 220°
2026-05-05 20:29 36.57793 142.43741 39492 ft 374 kts 220°
2026-05-05 20:29 36.55536 142.42168 39212 ft 369 kts 220°
2026-05-05 20:29 36.53304 142.40617 38918 ft 366 kts 221°
2026-05-05 20:30 36.51092 142.39073 38629 ft 365 kts 221°
2026-05-05 20:30 36.48855 142.37517 38336 ft 366 kts 221°
2026-05-05 20:30 36.46648 142.35974 38042 ft 366 kts 221°
2026-05-05 20:30 36.44408 142.34421 37757 ft 368 kts 220°
2026-05-05 20:31 36.42159 142.32858 37472 ft 369 kts 220°
2026-05-05 20:31 36.39941 142.31314 37190 ft 367 kts 220°
2026-05-05 20:31 36.37692 142.29759 36906 ft 369 kts 221°
2026-05-05 20:31 36.35461 142.28207 36606 ft 368 kts 220°
2026-05-05 20:32 36.33228 142.26665 36279 ft 368 kts 220°
2026-05-05 20:32 36.30989 142.25119 35811 ft 371 kts 220°
2026-05-05 20:32 36.28729 142.23560 35287 ft 372 kts 221°
2026-05-05 20:32 36.26474 142.22009 34750 ft 371 kts 220°
2026-05-05 20:33 36.24239 142.20471 34201 ft 372 kts 220°
2026-05-05 20:33 36.21960 142.18909 33632 ft 371 kts 220°
2026-05-05 20:33 36.19719 142.17360 33101 ft 371 kts 219°
2026-05-05 20:33 36.17457 142.15804 32538 ft 372 kts 220°
2026-05-05 20:34 36.15210 142.14255 31994 ft 371 kts 220°
2026-05-05 20:34 36.12965 142.12712 31653 ft 365 kts 220°
2026-05-05 20:34 36.10770 142.11211 31304 ft 361 kts 219°
2026-05-05 20:34 36.08581 142.09711 30948 ft 356 kts 219°
2026-05-05 20:35 36.06449 142.08243 30604 ft 352 kts 219°
2026-05-05 20:35 36.04319 142.06776 30270 ft 348 kts 219°
2026-05-05 20:35 36.02214 142.05322 29935 ft 345 kts 219°
2026-05-05 20:35 36.00129 142.03879 29602 ft 343 kts 219°
2026-05-05 20:36 35.98044 142.02440 29279 ft 342 kts 219°
2026-05-05 20:36 35.95949 142.00987 28956 ft 342 kts 219°
2026-05-05 20:36 35.93883 141.99554 28626 ft 340 kts 218°
2026-05-05 20:36 35.91845 141.98148 28299 ft 339 kts 218°
2026-05-05 20:37 35.89784 141.96725 27962 ft 338 kts 218°
2026-05-05 20:37 35.88401 141.95775 27731 ft 338 kts 218°
2026-05-05 20:37 35.85665 141.93890 27274 ft 337 kts 218°
2026-05-05 20:37 35.83643 141.92438 26945 ft 332 kts 223°
2026-05-05 20:38 35.82041 141.90526 26629 ft 322 kts 237°
2026-05-05 20:38 35.80938 141.88136 26276 ft 318 kts 249°
2026-05-05 20:38 35.80205 141.85594 25786 ft 320 kts 253°
2026-05-05 20:38 35.79561 141.82953 25198 ft 324 kts 254°
2026-05-05 20:39 35.78931 141.80298 24732 ft 324 kts 253°
2026-05-05 20:39 35.78316 141.77632 24364 ft 322 kts 255°
2026-05-05 20:39 35.77858 141.74921 24005 ft 321 kts 259°
2026-05-05 20:39 35.77621 141.72214 23672 ft 321 kts 265°
2026-05-05 20:40 35.77535 141.69487 23334 ft 320 kts 265°
2026-05-05 20:40 35.77469 141.66731 22976 ft 322 kts 266°
2026-05-05 20:40 35.77408 141.63994 22633 ft 322 kts 266°
2026-05-05 20:40 35.77347 141.61221 22286 ft 323 kts 266°
2026-05-05 20:41 35.77291 141.58475 21931 ft 324 kts 266°
2026-05-05 20:41 35.77232 141.55692 21575 ft 326 kts 265°
2026-05-05 20:41 35.77172 141.52898 21226 ft 326 kts 265°
2026-05-05 20:41 35.77111 141.50117 20871 ft 327 kts 266°
2026-05-05 20:42 35.77051 141.47321 20512 ft 329 kts 265°
2026-05-05 20:42 35.76986 141.44510 20154 ft 329 kts 265°
2026-05-05 20:42 35.76922 141.41702 19795 ft 331 kts 266°
2026-05-05 20:42 35.76855 141.38835 19415 ft 332 kts 265°
2026-05-05 20:43 35.76789 141.35998 19064 ft 333 kts 265°
2026-05-05 20:43 35.76722 141.33153 18686 ft 335 kts 265°
2026-05-05 20:43 35.76656 141.30307 18293 ft 337 kts 265°
2026-05-05 20:43 35.76588 141.27391 17883 ft 339 kts 265°
2026-05-05 20:44 35.76518 141.24497 17477 ft 340 kts 265°
2026-05-05 20:44 35.76448 141.21605 17098 ft 340 kts 265°
2026-05-05 20:44 35.76395 141.18709 16727 ft 340 kts 267°
2026-05-05 20:44 35.76392 141.15775 16364 ft 340 kts 268°
2026-05-05 20:45 35.76405 141.09993 15632 ft 339 kts 267°
2026-05-05 20:45 35.76406 141.07114 15265 ft 338 kts 267°
2026-05-05 20:45 35.76441 141.04217 14883 ft 339 kts 272°
2026-05-05 20:46 35.76913 141.01346 14508 ft 342 kts 285°
2026-05-05 20:46 35.77871 140.98698 14194 ft 342 kts 296°
2026-05-05 20:46 35.79057 140.96135 13875 ft 341 kts 298°
2026-05-05 20:46 35.80253 140.93633 13535 ft 340 kts 298°
2026-05-05 20:47 35.81446 140.91132 13195 ft 338 kts 298°
2026-05-05 20:47 35.82630 140.88628 12851 ft 337 kts 298°
2026-05-05 20:47 35.83798 140.86144 12505 ft 336 kts 298°
2026-05-05 20:47 35.84966 140.83647 12152 ft 335 kts 298°
2026-05-05 20:48 35.86122 140.81172 11799 ft 335 kts 298°
2026-05-05 20:48 35.87283 140.78682 11441 ft 334 kts 297°
2026-05-05 20:48 35.88443 140.76187 11083 ft 333 kts 298°
2026-05-05 20:48 35.89589 140.73724 10725 ft 332 kts 298°
2026-05-05 20:49 35.90727 140.71278 10369 ft 331 kts 298°
2026-05-05 20:49 35.91873 140.68805 10116 ft 326 kts 298°
2026-05-05 20:49 35.92974 140.66437 10075 ft 314 kts 298°
2026-05-05 20:49 35.94045 140.64131 10033 ft 303 kts 297°
2026-05-05 20:50 35.95072 140.61919 9993 ft 292 kts 297°
2026-05-05 20:50 35.96067 140.59767 9753 ft 291 kts 297°
2026-05-05 20:50 35.97074 140.57587 9488 ft 289 kts 297°
2026-05-05 20:50 35.98025 140.55426 9184 ft 284 kts 292°
2026-05-05 20:51 35.98702 140.53181 8852 ft 277 kts 283°
2026-05-05 20:51 35.99146 140.50922 8556 ft 271 kts 277°
2026-05-05 20:51 35.99395 140.48644 8239 ft 266 kts 274°
2026-05-05 20:51 35.99612 140.46378 7947 ft 262 kts 275°
2026-05-05 20:52 35.99847 140.44189 7598 ft 257 kts 276°
2026-05-05 20:52 36.00111 140.42023 7290 ft 252 kts 276°
2026-05-05 20:52 36.00372 140.39918 7011 ft 247 kts 276°
2026-05-05 20:52 36.00639 140.37846 6721 ft 243 kts 276°
2026-05-05 20:53 36.00905 140.35817 6429 ft 239 kts 276°
2026-05-05 20:53 36.01140 140.33809 6129 ft 233 kts 267°
2026-05-05 20:53 36.00897 140.31882 5835 ft 224 kts 244°
2026-05-05 20:53 36.00190 140.30202 5536 ft 218 kts 236°
2026-05-05 20:54 35.99412 140.28628 5272 ft 214 kts 235°
2026-05-05 20:54 35.98639 140.27071 5009 ft 210 kts 235°
2026-05-05 20:54 35.97887 140.25549 4755 ft 205 kts 232°
2026-05-05 20:54 35.96866 140.24405 4483 ft 197 kts 201°
2026-05-05 20:55 35.95553 140.24103 4240 ft 194 kts 175°
2026-05-05 20:55 35.94269 140.24626 3998 ft 194 kts 153°
2026-05-05 20:55 35.93123 140.25456 3764 ft 192 kts 152°
2026-05-05 20:55 35.91978 140.26306 3522 ft 191 kts 152°
2026-05-05 20:56 35.90851 140.27150 3200 ft 188 kts 153°
2026-05-05 20:56 35.89737 140.27969 2896 ft 181 kts 152°
2026-05-05 20:56 35.88678 140.28738 2670 ft 173 kts 153°
2026-05-05 20:56 35.87656 140.29474 2463 ft 167 kts 153°
2026-05-05 20:57 35.86678 140.30176 2259 ft 162 kts 153°
2026-05-05 20:57 35.85722 140.30862 2045 ft 156 kts 153°
2026-05-05 20:57 35.84802 140.31523 1823 ft 150 kts 152°
2026-05-05 20:57 35.83906 140.32169 1615 ft 146 kts 153°
2026-05-05 20:58 35.83036 140.32794 1413 ft 143 kts 152°
2026-05-05 20:58 35.82187 140.33400 1208 ft 140 kts 152°
2026-05-05 20:58 35.81334 140.34010 1057 ft 140 kts 152°
2026-05-05 20:58 35.80498 140.34616 860 ft 140 kts 150°
2026-05-05 20:59 35.79666 140.35233 669 ft 139 kts 151°
2026-05-05 20:59 35.78825 140.35828 493 ft 139 kts 151°
2026-05-05 20:59 35.77983 140.36430 292 ft 137 kts 150°
2026-05-05 20:59 35.77169 140.37018 136 ft 133 kts 149°
2026-05-05 21:00 35.76483 140.37515 143 ft 90 kts 149°
2026-05-05 21:00 35.76104 140.37795 145 ft 38 kts 150°
2026-05-05 21:00 35.75925 140.37956 147 ft 27 kts 131°
2026-05-05 21:00 35.75828 140.38135 152 ft 21 kts 120°
2026-05-05 21:01 35.75772 140.38255 150 ft 9 kts 120°
2026-05-05 21:01 35.75732 140.38313 149 ft 9 kts 142°